Time,TemperatureF,DewpointF,PressureIn,WindDirection,WindDirectionDegrees,WindSpeedMPH,WindSpeedGustMPH,Humidity,HourlyPrecipIn,Conditions,Clouds,dailyrainin,SoftwareType,DateUTC
2013-01-31 00:00:00,22.3,17.6,30.03,SW,232,0.0,0.0,82,0.00,,CLR,0.00,VWS V14.01,2013-01-31 06:00:00,
2013-01-31 00:02:00,22.1,17.4,30.03,SW,232,0.0,0.0,82,0.00,,CLR,0.00,VWS V14.01,2013-01-31 06:02:00,
2013-01-31 00:04:00,22.1,17.4,30.03,SW,232,0.0,0.0,82,0.00,,CLR,0.00,VWS V14.01,2013-01-31 06:04:00,
2013-01-31 00:06:00,22.1,17.4,30.03,SW,232,0.0,0.0,82,0.00,,CLR,0.00,VWS V14.01,2013-01-31 06:06:00,
2013-01-31 00:08:00,22.1,17.4,30.03,SW,232,0.0,0.0,82,0.00,,CLR,0.00,VWS V14.01,2013-01-31 06:08:00,
2013-01-31 00:09:00,22.1,17.8,30.03,SW,232,0.0,0.0,83,0.00,,CLR,0.00,VWS V14.01,2013-01-31 06:09:00,
2013-01-31 00:10:00,22.1,17.8,30.03,SW,232,0.0,0.0,83,0.00,,CLR,0.00,VWS V14.01,2013-01-31 06:10:00,
2013-01-31 00:12:00,22.1,17.8,30.03,SW,232,0.0,0.0,83,0.00,,CLR,0.00,VWS V14.01,2013-01-31 06:12:00,
2013-01-31 00:14:00,22.1,17.8,30.03,SW,232,0.0,0.0,83,0.00,,CLR,0.00,VWS V14.01,2013-01-31 06:14:00,
2013-01-31 00:16:00,21.9,17.6,30.03,SW,232,0.0,0.0,83,0.00,,CLR,0.00,VWS V14.01,2013-01-31 06:16:00,
2013-01-31 00:18:00,21.9,17.6,30.03,SW,232,0.0,0.0,83,0.00,,CLR,0.00,VWS V14.01,2013-01-31 06:18:00,
2013-01-31 00:19:00,21.9,17.6,30.03,SW,232,0.0,0.0,83,0.00,,CLR,0.00,VWS V14.01,2013-01-31 06:19:00,
2013-01-31 00:20:00,21.9,17.6,30.03,SW,232,0.0,0.0,83,0.00,,CLR,0.00,VWS V14.01,2013-01-31 06:20:00,
2013-01-31 00:22:00,21.7,17.4,30.03,SW,232,0.0,0.0,83,0.00,,CLR,0.00,VWS V14.01,2013-01-31 06:22:00,
2013-01-31 00:24:00,21.6,17.2,30.03,SW,232,0.0,0.0,83,0.00,,CLR,0.00,VWS V14.01,2013-01-31 06:24:00,
2013-01-31 00:26:00,21.6,17.2,30.03,SW,232,0.0,0.0,83,0.00,,CLR,0.00,VWS V14.01,2013-01-31 06:26:00,
2013-01-31 00:28:00,21.4,17.1,30.03,SW,232,0.0,0.0,83,0.00,,CLR,0.00,VWS V14.01,2013-01-31 06:28:00,
2013-01-31 00:29:00,21.4,17.1,30.03,SW,232,0.0,0.0,83,0.00,,CLR,0.00,VWS V14.01,2013-01-31 06:29:00,
2013-01-31 00:30:00,21.4,17.1,30.03,SW,232,0.0,0.0,83,0.00,,CLR,0.00,VWS V14.01,2013-01-31 06:30:00,
2013-01-31 00:32:00,21.4,17.1,30.03,SW,232,0.0,0.0,83,0.00,,CLR,0.00,VWS V14.01,2013-01-31 06:32:00,
2013-01-31 00:34:00,21.6,17.6,30.03,SW,232,0.0,0.0,84,0.00,,CLR,0.00,VWS V14.01,2013-01-31 06:34:00,
2013-01-31 00:36:00,21.6,17.6,30.03,SW,232,0.0,0.0,84,0.00,,CLR,0.00,VWS V14.01,2013-01-31 06:36:00,
2013-01-31 00:38:00,21.7,17.8,30.03,SW,232,0.0,0.0,84,0.00,,CLR,0.00,VWS V14.01,2013-01-31 06:38:00,
2013-01-31 00:39:00,21.7,17.8,30.03,SW,232,0.0,0.0,84,0.00,,CLR,0.00,VWS V14.01,2013-01-31 06:39:00,
2013-01-31 00:40:00,21.6,17.6,30.03,SW,232,0.0,0.0,84,0.00,,CLR,0.00,VWS V14.01,2013-01-31 06:40:00,
2013-01-31 00:42:00,21.6,17.6,30.03,SW,232,0.0,0.0,84,0.00,,CLR,0.00,VWS V14.01,2013-01-31 06:42:00,
2013-01-31 00:44:00,21.4,17.4,30.03,SW,232,0.0,0.0,84,0.00,,CLR,0.00,VWS V14.01,2013-01-31 06:44:00,
2013-01-31 00:46:00,21.4,17.4,30.03,SW,232,0.0,0.0,84,0.00,,CLR,0.00,VWS V14.01,2013-01-31 06:46:00,
2013-01-31 00:48:00,21.2,17.3,30.03,SW,232,0.0,0.0,84,0.00,,CLR,0.00,VWS V14.01,2013-01-31 06:48:00,
2013-01-31 00:49:00,21.2,17.3,30.03,SW,232,0.0,0.0,84,0.00,,CLR,0.00,VWS V14.01,2013-01-31 06:49:00,
2013-01-31 00:50:00,21.2,17.3,30.03,SW,232,0.0,0.0,84,0.00,,CLR,0.00,VWS V14.01,2013-01-31 06:50:00,
2013-01-31 00:52:00,21.2,17.3,30.03,SW,232,0.0,0.0,84,0.00,,CLR,0.00,VWS V14.01,2013-01-31 06:52:00,
2013-01-31 00:54:00,21.0,17.1,30.03,SW,232,0.0,0.0,84,0.00,,CLR,0.00,VWS V14.01,2013-01-31 06:54:00,
2013-01-31 00:56:00,21.0,17.1,30.03,SW,232,0.0,0.0,84,0.00,,CLR,0.00,VWS V14.01,2013-01-31 06:56:00,
2013-01-31 00:58:00,21.0,17.1,30.03,SW,231,0.0,0.0,84,0.00,,CLR,0.00,VWS V14.01,2013-01-31 06:58:00,
2013-01-31 00:59:00,21.0,17.4,30.03,SW,232,0.0,0.0,86,0.00,,CLR,0.00,VWS V14.01,2013-01-31 06:59:00,
2013-01-31 01:00:00,21.0,17.4,30.03,SW,232,0.0,0.0,86,0.00,,CLR,0.00,VWS V14.01,2013-01-31 07:00:00,
2013-01-31 01:02:00,21.0,17.4,30.03,SW,231,0.0,0.0,86,0.00,,CLR,0.00,VWS V14.01,2013-01-31 07:02:00,
2013-01-31 01:04:00,21.2,17.6,30.03,SW,224,4.4,4.7,86,0.00,,CLR,0.00,VWS V14.01,2013-01-31 07:04:00,
2013-01-31 01:06:00,21.2,17.6,30.03,SW,221,5.0,5.2,86,0.00,,CLR,0.00,VWS V14.01,2013-01-31 07:06:00,
2013-01-31 01:08:00,21.4,17.8,30.03,SW,231,3.9,5.2,86,0.00,,CLR,0.00,VWS V14.01,2013-01-31 07:08:00,
2013-01-31 01:10:00,21.6,18.0,30.03,SW,221,5.0,6.4,86,0.00,,CLR,0.00,VWS V14.01,2013-01-31 07:10:00,
2013-01-31 01:12:00,21.7,18.1,30.03,SW,217,4.4,5.2,86,0.00,,CLR,0.00,VWS V14.01,2013-01-31 07:12:00,
2013-01-31 01:14:00,21.9,18.7,30.03,SSW,208,3.9,5.2,87,0.00,,CLR,0.00,VWS V14.01,2013-01-31 07:14:00,
2013-01-31 01:15:00,21.9,18.7,30.03,SSW,207,6.1,6.4,87,0.00,,CLR,0.00,VWS V14.01,2013-01-31 07:15:00,
2013-01-31 01:16:00,21.9,18.7,30.03,SW,214,5.0,6.4,87,0.00,,CLR,0.00,VWS V14.01,2013-01-31 07:16:00,
2013-01-31 01:18:00,22.1,18.9,30.03,SW,218,3.9,7.6,87,0.00,,CLR,0.00,VWS V14.01,2013-01-31 07:18:00,
2013-01-31 01:20:00,22.3,19.0,30.03,SW,214,4.4,7.0,87,0.00,,CLR,0.00,VWS V14.01,2013-01-31 07:20:00,
2013-01-31 01:22:00,22.3,19.0,30.03,SW,232,3.9,5.2,87,0.00,,CLR,0.00,VWS V14.01,2013-01-31 07:22:00,
2013-01-31 01:24:00,22.3,19.0,30.03,SW,227,3.9,4.7,87,0.00,,CLR,0.00,VWS V14.01,2013-01-31 07:24:00,
2013-01-31 01:25:00,22.3,19.0,30.03,SW,230,6.1,6.4,87,0.00,,CLR,0.00,VWS V14.01,2013-01-31 07:25:00,
2013-01-31 01:26:00,22.3,19.0,30.03,SSW,211,4.4,6.4,87,0.00,,CLR,0.00,VWS V14.01,2013-01-31 07:26:00,
2013-01-31 01:28:00,22.5,19.2,30.03,SSW,213,3.9,4.7,87,0.00,,CLR,0.00,VWS V14.01,2013-01-31 07:28:00,
2013-01-31 01:30:00,22.5,19.2,30.03,SSW,198,3.9,5.2,87,0.00,,CLR,0.00,VWS V14.01,2013-01-31 07:30:00,
2013-01-31 01:32:00,22.5,19.2,30.03,SSW,198,3.3,3.5,87,0.00,,CLR,0.00,VWS V14.01,2013-01-31 07:32:00,
2013-01-31 01:34:00,22.5,19.2,30.03,SSW,198,0.0,3.5,87,0.00,,CLR,0.00,VWS V14.01,2013-01-31 07:34:00,
2013-01-31 01:35:00,22.5,19.2,30.03,SW,218,3.3,4.7,87,0.00,,CLR,0.00,VWS V14.01,2013-01-31 07:35:00,
2013-01-31 01:36:00,22.5,19.2,30.03,SW,224,4.4,4.7,87,0.00,,CLR,0.00,VWS V14.01,2013-01-31 07:36:00,
2013-01-31 01:38:00,22.5,19.2,30.03,SW,229,3.3,5.8,87,0.00,,CLR,0.00,VWS V14.01,2013-01-31 07:38:00,
2013-01-31 01:40:00,22.5,19.6,30.03,SW,234,4.4,5.2,88,0.00,,CLR,0.00,VWS V14.01,2013-01-31 07:40:00,
2013-01-31 01:42:00,22.5,19.6,30.03,SW,233,4.4,5.2,88,0.00,,CLR,0.00,VWS V14.01,2013-01-31 07:42:00,
2013-01-31 01:44:00,22.5,19.6,30.03,SSW,213,4.4,5.2,88,0.00,,CLR,0.00,VWS V14.01,2013-01-31 07:44:00,
2013-01-31 01:45:00,22.5,19.6,30.03,SW,218,5.0,5.2,88,0.00,,CLR,0.00,VWS V14.01,2013-01-31 07:45:00,
2013-01-31 01:46:00,22.5,19.6,30.03,SSW,213,4.4,5.2,88,0.00,,CLR,0.00,VWS V14.01,2013-01-31 07:46:00,
2013-01-31 01:48:00,22.6,19.8,30.03,SW,217,3.9,5.2,88,0.00,,CLR,0.00,VWS V14.01,2013-01-31 07:48:00,
2013-01-31 01:50:00,22.6,19.7,30.03,SSW,213,3.9,6.4,88,0.00,,CLR,0.00,VWS V14.01,2013-01-31 07:50:00,
2013-01-31 01:52:00,22.6,19.8,30.03,SSW,209,5.5,7.0,88,0.00,,CLR,0.00,VWS V14.01,2013-01-31 07:52:00,
2013-01-31 01:54:00,22.6,19.8,30.03,SW,218,5.0,7.6,88,0.00,,CLR,0.00,VWS V14.01,2013-01-31 07:54:00,
2013-01-31 01:55:00,22.8,19.9,30.03,SSW,200,6.7,7.0,88,0.00,,CLR,0.00,VWS V14.01,2013-01-31 07:55:00,
2013-01-31 01:56:00,22.8,19.9,30.03,SSW,209,5.0,7.0,88,0.00,,CLR,0.00,VWS V14.01,2013-01-31 07:56:00,
2013-01-31 01:58:00,22.8,19.9,30.03,SW,220,3.9,5.8,88,0.00,,CLR,0.00,VWS V14.01,2013-01-31 07:58:00,
2013-01-31 02:00:00,22.8,19.9,30.03,SW,227,4.4,4.7,88,0.00,,CLR,0.00,VWS V14.01,2013-01-31 08:00:00,
2013-01-31 02:02:00,22.8,19.9,30.03,SW,226,0.0,4.7,88,0.00,,CLR,0.00,VWS V14.01,2013-01-31 08:02:00,
2013-01-31 02:04:00,22.8,19.9,30.03,SW,226,0.0,0.0,88,0.00,,CLR,0.00,VWS V14.01,2013-01-31 08:04:00,
2013-01-31 02:05:00,22.8,19.9,30.03,SW,226,0.0,0.0,88,0.00,,CLR,0.00,VWS V14.01,2013-01-31 08:05:00,
2013-01-31 02:06:00,22.8,19.9,30.03,SW,226,0.0,0.0,88,0.00,,CLR,0.00,VWS V14.01,2013-01-31 08:06:00,
2013-01-31 02:08:00,22.6,20.1,30.03,SW,226,0.0,0.0,90,0.00,,CLR,0.00,VWS V14.01,2013-01-31 08:08:00,
2013-01-31 02:10:00,22.6,20.1,30.01,SW,227,0.0,0.0,90,0.00,,CLR,0.00,VWS V14.01,2013-01-31 08:10:00,
2013-01-31 02:12:00,22.6,20.1,30.00,SW,226,0.0,0.0,90,0.00,,CLR,0.00,VWS V14.01,2013-01-31 08:12:00,
2013-01-31 02:14:00,22.5,19.9,30.00,SW,226,0.0,0.0,90,0.00,,CLR,0.00,VWS V14.01,2013-01-31 08:14:00,
2013-01-31 02:15:00,22.5,19.9,30.01,SW,226,0.0,0.0,90,0.00,,CLR,0.00,VWS V14.01,2013-01-31 08:15:00,
2013-01-31 02:16:00,22.5,19.9,30.00,SW,226,0.0,0.0,90,0.00,,CLR,0.00,VWS V14.01,2013-01-31 08:16:00,
2013-01-31 02:18:00,22.5,19.9,30.00,SW,227,0.0,0.0,90,0.00,,CLR,0.00,VWS V14.01,2013-01-31 08:18:00,
2013-01-31 02:20:00,22.5,19.9,30.01,SW,226,0.0,0.0,90,0.00,,CLR,0.00,VWS V14.01,2013-01-31 08:20:00,
2013-01-31 02:22:00,22.3,19.7,30.00,SW,226,0.0,0.0,90,0.00,,CLR,0.00,VWS V14.01,2013-01-31 08:22:00,
2013-01-31 02:24:00,22.3,19.7,30.00,SW,226,0.0,0.0,90,0.00,,CLR,0.00,VWS V14.01,2013-01-31 08:24:00,
2013-01-31 02:25:00,22.3,19.7,30.01,SW,226,0.0,0.0,90,0.00,,CLR,0.00,VWS V14.01,2013-01-31 08:25:00,
2013-01-31 02:26:00,22.3,19.7,30.00,SW,226,0.0,0.0,90,0.00,,CLR,0.00,VWS V14.01,2013-01-31 08:26:00,
2013-01-31 02:28:00,22.1,19.6,30.00,SW,226,0.0,0.0,90,0.00,,CLR,0.00,VWS V14.01,2013-01-31 08:28:00,
2013-01-31 02:30:00,21.9,19.4,30.01,SW,226,0.0,0.0,90,0.00,,CLR,0.00,VWS V14.01,2013-01-31 08:30:00,
2013-01-31 02:32:00,21.9,19.0,30.00,SW,227,0.0,0.0,88,0.00,,CLR,0.00,VWS V14.01,2013-01-31 08:32:00,
2013-01-31 02:34:00,21.7,18.9,30.00,SW,226,0.0,0.0,88,0.00,,CLR,0.00,VWS V14.01,2013-01-31 08:34:00,
2013-01-31 02:35:00,21.7,18.9,30.01,SW,226,0.0,0.0,88,0.00,,CLR,0.00,VWS V14.01,2013-01-31 08:35:00,
2013-01-31 02:36:00,21.7,19.2,30.00,SW,226,0.0,0.0,90,0.00,,CLR,0.00,VWS V14.01,2013-01-31 08:36:00,
2013-01-31 02:38:00,21.6,19.0,30.00,SW,227,0.0,0.0,90,0.00,,CLR,0.00,VWS V14.01,2013-01-31 08:38:00,
2013-01-31 02:40:00,21.6,19.0,30.01,SW,226,0.0,0.0,90,0.00,,CLR,0.00,VWS V14.01,2013-01-31 08:40:00,
2013-01-31 02:42:00,21.4,18.9,30.00,SW,226,0.0,0.0,90,0.00,,CLR,0.00,VWS V14.01,2013-01-31 08:42:00,
2013-01-31 02:44:00,21.4,18.9,30.00,SSW,203,0.0,0.0,90,0.00,,CLR,0.00,VWS V14.01,2013-01-31 08:44:00,
2013-01-31 02:45:00,21.2,18.7,30.01,SSW,203,0.0,0.0,90,0.00,,CLR,0.00,VWS V14.01,2013-01-31 08:45:00,
2013-01-31 02:46:00,21.2,18.7,30.00,SSW,203,0.0,0.0,90,0.00,,CLR,0.00,VWS V14.01,2013-01-31 08:46:00,
2013-01-31 02:48:00,21.2,18.7,30.00,SSW,203,0.0,0.0,90,0.00,,CLR,0.00,VWS V14.01,2013-01-31 08:48:00,
2013-01-31 02:50:00,21.2,19.0,30.01,SSW,199,0.0,0.0,91,0.00,,CLR,0.00,VWS V14.01,2013-01-31 08:50:00,
2013-01-31 02:52:00,21.2,19.0,30.00,SSW,197,0.0,0.0,91,0.00,,CLR,0.00,VWS V14.01,2013-01-31 08:52:00,
2013-01-31 02:54:00,21.2,19.0,30.00,South,189,0.0,0.0,91,0.00,,CLR,0.00,VWS V14.01,2013-01-31 08:54:00,
2013-01-31 02:55:00,21.2,19.0,30.01,South,188,2.8,2.9,91,0.00,,CLR,0.00,VWS V14.01,2013-01-31 08:55:00,
2013-01-31 02:56:00,21.2,19.0,30.00,South,187,3.3,3.5,91,0.00,,CLR,0.00,VWS V14.01,2013-01-31 08:56:00,
2013-01-31 02:58:00,21.2,19.0,30.00,South,182,3.3,3.5,91,0.00,,CLR,0.00,VWS V14.01,2013-01-31 08:58:00,
2013-01-31 03:00:00,21.2,19.0,30.01,South,182,0.0,0.0,91,0.00,,CLR,0.00,VWS V14.01,2013-01-31 09:00:00,
2013-01-31 03:02:00,21.2,19.0,30.00,South,182,0.0,0.0,91,0.00,,CLR,0.00,VWS V14.01,2013-01-31 09:02:00,
2013-01-31 03:04:00,21.2,19.0,30.00,South,182,0.0,0.0,91,0.00,,CLR,0.00,VWS V14.01,2013-01-31 09:04:00,
2013-01-31 03:05:00,21.2,19.0,30.01,South,182,0.0,0.0,91,0.00,,CLR,0.00,VWS V14.01,2013-01-31 09:05:00,
2013-01-31 03:06:00,21.2,19.0,30.00,South,182,0.0,0.0,91,0.00,,CLR,0.00,VWS V14.01,2013-01-31 09:06:00,
2013-01-31 03:08:00,21.2,19.0,30.00,South,182,0.0,0.0,91,0.00,,CLR,0.00,VWS V14.01,2013-01-31 09:08:00,
2013-01-31 03:10:00,21.2,19.0,30.01,South,185,0.0,0.0,91,0.00,,CLR,0.00,VWS V14.01,2013-01-31 09:10:00,
2013-01-31 03:12:00,21.2,19.0,30.00,SSW,211,0.0,0.0,91,0.00,,CLR,0.00,VWS V14.01,2013-01-31 09:12:00,
2013-01-31 03:14:00,21.2,19.0,30.00,SW,221,2.8,4.7,91,0.00,,CLR,0.00,VWS V14.01,2013-01-31 09:14:00,
2013-01-31 03:15:00,21.2,19.0,30.01,SW,219,3.3,5.2,91,0.00,,CLR,0.00,VWS V14.01,2013-01-31 09:15:00,
2013-01-31 03:16:00,21.2,19.0,30.00,SSW,193,3.9,5.2,91,0.00,,CLR,0.00,VWS V14.01,2013-01-31 09:16:00,
2013-01-31 03:18:00,21.2,19.0,30.00,SW,214,5.0,5.2,91,0.00,,CLR,0.00,VWS V14.01,2013-01-31 09:18:00,
2013-01-31 03:20:00,21.4,19.2,30.01,SW,223,3.9,5.2,91,0.00,,CLR,0.00,VWS V14.01,2013-01-31 09:20:00,
2013-01-31 03:22:00,21.4,19.2,30.00,SW,228,4.4,5.2,91,0.00,,CLR,0.00,VWS V14.01,2013-01-31 09:22:00,
2013-01-31 03:24:00,21.4,19.2,30.00,SW,225,5.0,5.2,91,0.00,,CLR,0.00,VWS V14.01,2013-01-31 09:24:00,
2013-01-31 03:26:00,21.6,19.4,30.01,SW,229,5.0,5.8,91,0.00,,CLR,0.00,VWS V14.01,2013-01-31 09:26:00,
2013-01-31 03:28:00,21.7,19.9,30.00,SW,226,5.0,7.0,92,0.00,,CLR,0.00,VWS V14.01,2013-01-31 09:28:00,
2013-01-31 03:30:00,21.7,19.9,30.00,SW,218,4.4,5.2,92,0.00,,CLR,0.00,VWS V14.01,2013-01-31 09:30:00,
2013-01-31 03:31:00,21.9,20.1,30.01,SW,219,3.9,4.7,92,0.00,,CLR,0.00,VWS V14.01,2013-01-31 09:31:00,
2013-01-31 03:32:00,21.9,20.1,30.00,SSW,213,3.3,4.7,92,0.00,,CLR,0.00,VWS V14.01,2013-01-31 09:32:00,
2013-01-31 03:34:00,21.9,20.1,30.00,SW,219,3.3,4.7,92,0.00,,CLR,0.00,VWS V14.01,2013-01-31 09:34:00,
2013-01-31 03:36:00,21.9,20.1,30.01,SW,222,3.9,4.7,92,0.00,,CLR,0.00,VWS V14.01,2013-01-31 09:36:00,
2013-01-31 03:38:00,21.9,20.1,30.00,SW,228,4.4,4.7,92,0.00,,CLR,0.00,VWS V14.01,2013-01-31 09:38:00,
2013-01-31 03:40:00,21.9,20.1,30.00,SW,232,3.9,5.2,92,0.00,,CLR,0.00,VWS V14.01,2013-01-31 09:40:00,
2013-01-31 03:41:00,21.9,20.1,30.01,SSW,212,4.4,5.2,92,0.00,,CLR,0.00,VWS V14.01,2013-01-31 09:41:00,
2013-01-31 03:42:00,21.9,20.1,30.00,WSW,237,5.0,7.0,92,0.00,,CLR,0.00,VWS V14.01,2013-01-31 09:42:00,
2013-01-31 03:44:00,21.9,20.1,30.00,SW,221,5.0,7.6,92,0.00,,CLR,0.00,VWS V14.01,2013-01-31 09:44:00,
2013-01-31 03:46:00,21.9,20.1,30.01,WSW,239,3.9,5.2,92,0.00,,CLR,0.00,VWS V14.01,2013-01-31 09:46:00,
2013-01-31 03:48:00,22.1,20.2,30.00,SSW,196,4.4,6.4,92,0.00,,CLR,0.00,VWS V14.01,2013-01-31 09:48:00,
2013-01-31 03:50:00,22.1,20.2,30.00,SW,225,4.4,4.7,92,0.00,,CLR,0.00,VWS V14.01,2013-01-31 09:50:00,
2013-01-31 03:51:00,22.1,20.2,30.01,SSW,212,3.9,5.2,92,0.00,,CLR,0.00,VWS V14.01,2013-01-31 09:51:00,
2013-01-31 03:52:00,22.1,20.2,30.00,SSW,202,3.3,5.2,92,0.00,,CLR,0.00,VWS V14.01,2013-01-31 09:52:00,
2013-01-31 03:54:00,22.1,20.2,30.00,SW,217,4.4,5.2,92,0.00,,CLR,0.00,VWS V14.01,2013-01-31 09:54:00,
2013-01-31 03:56:00,22.1,20.2,30.01,SW,219,3.3,4.7,92,0.00,,CLR,0.00,VWS V14.01,2013-01-31 09:56:00,
2013-01-31 03:58:00,22.1,20.2,30.00,WSW,246,5.0,5.2,92,0.00,,CLR,0.00,VWS V14.01,2013-01-31 09:58:00,
2013-01-31 04:00:00,22.1,20.2,30.00,SW,227,3.3,5.2,92,0.00,,CLR,0.00,VWS V14.01,2013-01-31 10:00:00,
2013-01-31 04:01:00,22.1,20.2,30.01,SW,221,3.9,4.7,92,0.00,,CLR,0.00,VWS V14.01,2013-01-31 10:01:00,
2013-01-31 04:02:00,22.1,20.2,30.00,SW,226,3.3,4.7,92,0.00,,CLR,0.00,VWS V14.01,2013-01-31 10:02:00,
2013-01-31 04:04:00,22.1,20.2,30.00,WSW,240,3.3,4.7,92,0.00,,CLR,0.00,VWS V14.01,2013-01-31 10:04:00,
2013-01-31 04:06:00,22.1,20.2,30.01,SW,220,5.0,5.2,92,0.00,,CLR,0.00,VWS V14.01,2013-01-31 10:06:00,
2013-01-31 04:08:00,22.1,20.2,30.00,SW,222,3.3,5.2,92,0.00,,CLR,0.00,VWS V14.01,2013-01-31 10:08:00,
2013-01-31 04:10:00,22.1,20.2,30.00,WSW,244,4.4,4.7,92,0.00,,CLR,0.00,VWS V14.01,2013-01-31 10:10:00,
2013-01-31 04:11:00,22.1,20.2,30.01,SW,231,3.3,4.7,92,0.00,,CLR,0.00,VWS V14.01,2013-01-31 10:11:00,
2013-01-31 04:12:00,22.1,20.2,30.00,WSW,239,3.3,4.7,92,0.00,,CLR,0.00,VWS V14.01,2013-01-31 10:12:00,
2013-01-31 04:14:00,22.1,20.2,30.00,WSW,239,0.0,3.5,92,0.00,,CLR,0.00,VWS V14.01,2013-01-31 10:14:00,
2013-01-31 04:16:00,21.9,20.1,30.01,WSW,239,0.0,0.0,92,0.00,,CLR,0.00,VWS V14.01,2013-01-31 10:16:00,
2013-01-31 04:18:00,21.9,20.1,30.00,WSW,239,0.0,0.0,92,0.00,,CLR,0.00,VWS V14.01,2013-01-31 10:18:00,
2013-01-31 04:20:00,21.9,20.1,30.00,WSW,239,0.0,0.0,92,0.00,,CLR,0.00,VWS V14.01,2013-01-31 10:20:00,
2013-01-31 04:21:00,21.7,19.9,30.01,WSW,239,0.0,0.0,92,0.00,,CLR,0.00,VWS V14.01,2013-01-31 10:21:00,
2013-01-31 04:22:00,21.7,19.9,30.00,WSW,239,0.0,0.0,92,0.00,,CLR,0.00,VWS V14.01,2013-01-31 10:22:00,
2013-01-31 04:24:00,21.6,19.7,30.00,WSW,239,0.0,0.0,92,0.00,,CLR,0.00,VWS V14.01,2013-01-31 10:24:00,
2013-01-31 04:26:00,21.4,19.5,30.01,WSW,239,0.0,0.0,92,0.00,,CLR,0.00,VWS V14.01,2013-01-31 10:26:00,
2013-01-31 04:28:00,21.2,19.3,30.00,WSW,239,0.0,0.0,92,0.00,,CLR,0.00,VWS V14.01,2013-01-31 10:28:00,
2013-01-31 04:30:00,21.2,19.3,30.00,WSW,239,0.0,0.0,92,0.00,,CLR,0.00,VWS V14.01,2013-01-31 10:30:00,
2013-01-31 04:31:00,21.2,19.3,30.01,WSW,239,0.0,0.0,92,0.00,,CLR,0.00,VWS V14.01,2013-01-31 10:31:00,
2013-01-31 04:32:00,21.0,19.2,30.00,WSW,239,0.0,0.0,92,0.00,,CLR,0.00,VWS V14.01,2013-01-31 10:32:00,
2013-01-31 04:34:00,21.0,19.2,30.00,WSW,239,0.0,0.0,92,0.00,,CLR,0.00,VWS V14.01,2013-01-31 10:34:00,
2013-01-31 04:36:00,21.0,19.2,30.01,SW,236,0.0,0.0,92,0.00,,CLR,0.00,VWS V14.01,2013-01-31 10:36:00,
2013-01-31 04:38:00,20.8,19.0,30.00,WSW,237,0.0,0.0,92,0.00,,CLR,0.00,VWS V14.01,2013-01-31 10:38:00,
2013-01-31 04:40:00,20.8,19.0,30.00,SW,236,0.0,0.0,92,0.00,,CLR,0.00,VWS V14.01,2013-01-31 10:40:00,
2013-01-31 04:41:00,20.7,18.8,30.01,WSW,237,0.0,0.0,92,0.00,,CLR,0.00,VWS V14.01,2013-01-31 10:41:00,
2013-01-31 04:42:00,20.7,18.8,30.00,WSW,237,0.0,0.0,92,0.00,,OVC010,0.00,VWS V14.01,2013-01-31 10:42:00,
2013-01-31 04:44:00,20.7,18.8,30.00,WSW,237,0.0,0.0,92,0.00,,CLR,0.00,VWS V14.01,2013-01-31 10:44:00,
2013-01-31 04:46:00,20.7,19.1,30.01,SW,236,0.0,0.0,94,0.00,,CLR,0.00,VWS V14.01,2013-01-31 10:46:00,
2013-01-31 04:48:00,20.7,19.1,30.00,WSW,237,0.0,0.0,94,0.00,,CLR,0.00,VWS V14.01,2013-01-31 10:48:00,
2013-01-31 04:50:00,20.7,19.1,30.00,WSW,237,0.0,0.0,94,0.00,,CLR,0.00,VWS V14.01,2013-01-31 10:50:00,
2013-01-31 04:51:00,20.7,19.1,30.01,SW,236,0.0,0.0,94,0.00,,CLR,0.00,VWS V14.01,2013-01-31 10:51:00,
2013-01-31 04:52:00,20.5,19.0,30.00,SW,236,0.0,0.0,94,0.00,,CLR,0.00,VWS V14.01,2013-01-31 10:52:00,
2013-01-31 04:54:00,20.5,19.0,30.00,SSW,211,3.9,4.7,94,0.00,,CLR,0.00,VWS V14.01,2013-01-31 10:54:00,
2013-01-31 04:56:00,20.7,19.1,30.01,SSW,204,0.0,2.9,94,0.00,,CLR,0.00,VWS V14.01,2013-01-31 10:56:00,
2013-01-31 04:58:00,20.8,19.3,30.00,SSW,198,0.0,0.0,94,0.00,,CLR,0.00,VWS V14.01,2013-01-31 10:58:00,
2013-01-31 05:00:00,20.8,19.6,30.00,SSW,208,4.4,4.7,95,0.00,,,0.00,VWS V14.01,2013-01-31 11:00:00,
2013-01-31 05:01:00,21.0,19.8,30.01,SW,221,3.9,5.2,95,0.00,,CLR,0.00,VWS V14.01,2013-01-31 11:01:00,
2013-01-31 05:02:00,21.0,19.8,30.00,SW,221,2.8,5.2,95,0.00,,,0.00,VWS V14.01,2013-01-31 11:02:00,
2013-01-31 05:04:00,21.2,20.0,30.00,SW,218,4.4,4.7,95,0.00,,,0.00,VWS V14.01,2013-01-31 11:04:00,
2013-01-31 05:06:00,21.2,20.0,30.01,SSW,206,2.8,4.7,95,0.00,,CLR,0.00,VWS V14.01,2013-01-31 11:06:00,
2013-01-31 05:08:00,21.2,20.0,30.00,SW,223,4.4,5.2,95,0.00,,,0.00,VWS V14.01,2013-01-31 11:08:00,
2013-01-31 05:10:00,21.4,20.2,30.00,SSW,206,4.4,4.7,95,0.00,,,0.00,VWS V14.01,2013-01-31 11:10:00,
2013-01-31 05:11:00,21.6,20.4,30.01,SSW,206,3.3,4.7,95,0.00,,CLR,0.00,VWS V14.01,2013-01-31 11:11:00,
2013-01-31 05:12:00,21.6,20.4,30.00,SSW,206,3.3,4.7,95,0.00,,,0.00,VWS V14.01,2013-01-31 11:12:00,
2013-01-31 05:14:00,21.6,20.4,30.00,SSW,211,3.3,5.8,95,0.00,,,0.00,VWS V14.01,2013-01-31 11:14:00,
2013-01-31 05:16:00,21.7,20.5,30.01,SSW,213,4.4,5.2,95,0.00,,CLR,0.00,VWS V14.01,2013-01-31 11:16:00,
2013-01-31 05:18:00,21.7,20.5,30.00,SSW,210,4.4,4.7,95,0.00,,OVC010,0.00,VWS V14.01,2013-01-31 11:18:00,
2013-01-31 05:20:00,21.9,20.7,30.00,SSW,208,4.4,5.2,95,0.00,,OVC010,0.00,VWS V14.01,2013-01-31 11:20:00,
2013-01-31 05:26:00,21.9,20.7,30.01,SSW,203,4.4,4.7,95,0.00,,,0.00,VWS V14.01,2013-01-31 11:26:00,
2013-01-31 05:28:00,21.9,20.7,30.00,SW,217,3.9,4.7,95,0.00,,OVC010,0.00,VWS V14.01,2013-01-31 11:28:00,
2013-01-31 05:30:00,21.9,20.7,30.00,SW,216,3.9,5.2,95,0.00,,OVC010,0.00,VWS V14.01,2013-01-31 11:30:00,
2013-01-31 05:31:00,21.9,20.7,30.01,SW,214,0.0,4.1,95,0.00,,CLR,0.00,VWS V14.01,2013-01-31 11:31:00,
2013-01-31 05:32:00,22.1,20.9,30.00,SW,223,3.3,4.7,95,0.00,,OVC010,0.00,VWS V14.01,2013-01-31 11:32:00,
2013-01-31 05:34:00,22.1,20.9,30.00,SW,214,3.9,5.2,95,0.00,,OVC010,0.00,VWS V14.01,2013-01-31 11:34:00,
2013-01-31 05:36:00,22.1,20.9,30.01,SW,220,3.9,4.7,95,0.00,,CLR,0.00,VWS V14.01,2013-01-31 11:36:00,
2013-01-31 05:38:00,22.1,20.9,30.00,SSW,211,3.3,5.2,95,0.00,,OVC010,0.00,VWS V14.01,2013-01-31 11:38:00,
2013-01-31 05:40:00,22.3,21.1,30.00,SSW,204,3.9,5.2,95,0.00,,OVC010,0.00,VWS V14.01,2013-01-31 11:40:00,
2013-01-31 05:41:00,22.3,21.1,30.01,SSW,207,3.3,4.1,95,0.00,,CLR,0.00,VWS V14.01,2013-01-31 11:41:00,
2013-01-31 05:42:00,22.3,21.1,30.00,South,180,3.3,5.2,95,0.00,,OVC010,0.00,VWS V14.01,2013-01-31 11:42:00,
2013-01-31 05:44:00,22.3,21.1,30.00,SSW,213,3.3,4.7,95,0.00,,OVC010,0.00,VWS V14.01,2013-01-31 11:44:00,
2013-01-31 05:46:00,22.5,21.3,30.01,SSW,192,4.4,5.2,95,0.00,,CLR,0.00,VWS V14.01,2013-01-31 11:46:00,
2013-01-31 05:48:00,22.5,21.3,30.00,SW,218,5.0,7.0,95,0.00,,OVC010,0.00,VWS V14.01,2013-01-31 11:48:00,
2013-01-31 05:50:00,22.5,21.6,30.00,SW,221,4.4,6.4,96,0.00,,OVC010,0.00,VWS V14.01,2013-01-31 11:50:00,
2013-01-31 05:51:00,22.6,21.8,30.01,SSW,208,4.4,8.1,96,0.00,,CLR,0.00,VWS V14.01,2013-01-31 11:51:00,
2013-01-31 05:52:00,22.6,21.8,30.00,SW,214,4.4,8.1,96,0.00,,OVC010,0.00,VWS V14.01,2013-01-31 11:52:00,
2013-01-31 05:54:00,22.6,21.8,30.00,SSW,200,3.9,4.7,96,0.00,,OVC010,0.00,VWS V14.01,2013-01-31 11:54:00,
2013-01-31 05:56:00,22.8,21.9,30.01,SSW,206,4.4,5.8,96,0.00,,CLR,0.00,VWS V14.01,2013-01-31 11:56:00,
2013-01-31 05:58:00,22.8,21.9,30.00,SW,218,4.4,5.2,96,0.00,,OVC010,0.00,VWS V14.01,2013-01-31 11:58:00,
2013-01-31 06:00:00,22.8,21.9,30.00,SW,231,4.4,6.4,96,0.00,,OVC010,0.00,VWS V14.01,2013-01-31 12:00:00,
2013-01-31 06:01:00,22.8,21.9,30.01,SSW,201,5.0,5.2,96,0.00,,CLR,0.00,VWS V14.01,2013-01-31 12:01:00,
2013-01-31 06:02:00,22.8,21.9,30.00,SW,219,3.3,5.2,96,0.00,,OVC010,0.00,VWS V14.01,2013-01-31 12:02:00,
2013-01-31 06:04:00,22.8,21.9,30.00,SSW,203,5.0,5.8,96,0.00,,OVC010,0.00,VWS V14.01,2013-01-31 12:04:00,
2013-01-31 06:06:00,22.8,21.9,30.01,SSW,209,3.3,6.4,96,0.00,,CLR,0.00,VWS V14.01,2013-01-31 12:06:00,
2013-01-31 06:08:00,22.8,21.9,30.00,SSW,198,6.1,6.4,96,0.00,,OVC010,0.00,VWS V14.01,2013-01-31 12:08:00,
2013-01-31 06:10:00,22.8,21.9,30.00,SW,219,4.4,5.2,96,0.00,,OVC010,0.00,VWS V14.01,2013-01-31 12:10:00,
2013-01-31 06:11:00,22.8,21.9,30.01,SW,232,3.9,5.2,96,0.00,,CLR,0.00,VWS V14.01,2013-01-31 12:11:00,
2013-01-31 06:12:00,22.8,21.9,30.00,SSW,211,5.0,5.2,96,0.00,,OVC010,0.00,VWS V14.01,2013-01-31 12:12:00,
2013-01-31 06:14:00,22.8,21.9,30.00,SW,217,4.4,5.2,96,0.00,,OVC010,0.00,VWS V14.01,2013-01-31 12:14:00,
2013-01-31 06:16:00,22.8,21.9,30.01,SW,224,4.4,5.8,96,0.00,,CLR,0.00,VWS V14.01,2013-01-31 12:16:00,
2013-01-31 06:18:00,22.8,21.9,30.00,SSW,198,5.0,5.2,96,0.00,,OVC010,0.00,VWS V14.01,2013-01-31 12:18:00,
2013-01-31 06:20:00,22.8,21.9,30.00,SW,222,3.9,7.6,96,0.00,,OVC010,0.00,VWS V14.01,2013-01-31 12:20:00,
2013-01-31 06:21:00,22.8,21.9,30.01,SSW,197,6.7,7.6,96,0.00,,CLR,0.00,VWS V14.01,2013-01-31 12:21:00,
2013-01-31 06:22:00,22.8,21.9,30.00,SSW,211,5.0,7.6,96,0.00,,OVC010,0.00,VWS V14.01,2013-01-31 12:22:00,
2013-01-31 06:24:00,23.0,22.1,30.00,SW,218,4.4,6.4,96,0.00,,OVC010,0.00,VWS V14.01,2013-01-31 12:24:00,
2013-01-31 06:26:00,23.0,22.1,30.01,South,176,5.5,8.1,96,0.00,,CLR,0.00,VWS V14.01,2013-01-31 12:26:00,
2013-01-31 06:28:00,23.0,22.1,30.00,SW,230,3.9,7.0,96,0.00,,OVC010,0.00,VWS V14.01,2013-01-31 12:28:00,
2013-01-31 06:30:00,23.0,22.4,30.00,SW,228,6.1,7.6,98,0.00,,OVC010,0.00,VWS V14.01,2013-01-31 12:30:00,
2013-01-31 06:31:00,23.2,22.3,30.01,SW,229,5.0,7.0,96,0.00,,CLR,0.00,VWS V14.01,2013-01-31 12:31:00,
2013-01-31 06:32:00,23.2,22.3,30.00,SW,223,4.4,7.0,96,0.00,,OVC010,0.00,VWS V14.01,2013-01-31 12:32:00,
2013-01-31 06:34:00,23.2,22.3,30.00,SSW,204,5.5,7.6,96,0.00,,OVC010,0.00,VWS V14.01,2013-01-31 12:34:00,
2013-01-31 06:36:00,23.4,22.5,30.01,SSW,196,4.4,7.6,96,0.00,,CLR,0.00,VWS V14.01,2013-01-31 12:36:00,
2013-01-31 06:38:00,23.4,22.8,30.00,SW,224,7.2,7.6,98,0.00,,OVC010,0.00,VWS V14.01,2013-01-31 12:38:00,
2013-01-31 06:40:00,23.4,22.8,30.00,SSW,211,5.0,7.6,98,0.00,,OVC010,0.00,VWS V14.01,2013-01-31 12:40:00,
2013-01-31 06:41:00,23.5,23.0,30.01,SSW,211,3.9,8.1,98,0.00,,CLR,0.00,VWS V14.01,2013-01-31 12:41:00,
2013-01-31 06:42:00,23.5,23.0,30.00,SSW,206,5.0,8.1,98,0.00,,OVC010,0.00,VWS V14.01,2013-01-31 12:42:00,
2013-01-31 06:44:00,23.5,23.0,30.00,SSW,211,5.0,8.1,98,0.00,,OVC010,0.00,VWS V14.01,2013-01-31 12:44:00,
2013-01-31 06:46:00,23.5,23.0,30.01,SW,223,6.1,8.7,98,0.00,,CLR,0.00,VWS V14.01,2013-01-31 12:46:00,
2013-01-31 06:48:00,23.7,23.2,30.00,SSW,207,7.2,7.6,98,0.00,,OVC010,0.00,VWS V14.01,2013-01-31 12:48:00,
2013-01-31 06:50:00,23.7,23.2,30.00,SW,225,5.0,7.6,98,0.00,,OVC010,0.00,VWS V14.01,2013-01-31 12:50:00,
2013-01-31 06:51:00,23.7,23.2,30.01,SSW,213,5.0,8.1,98,0.00,,CLR,0.00,VWS V14.01,2013-01-31 12:51:00,
2013-01-31 06:52:00,23.7,23.2,30.00,SW,217,6.7,8.1,98,0.00,,OVC010,0.00,VWS V14.01,2013-01-31 12:52:00,
2013-01-31 06:54:00,23.7,23.2,30.00,SSW,211,5.0,7.0,98,0.00,,OVC010,0.00,VWS V14.01,2013-01-31 12:54:00,
2013-01-31 06:56:00,23.7,23.2,30.01,SW,214,7.2,7.6,98,0.00,,CLR,0.00,VWS V14.01,2013-01-31 12:56:00,
2013-01-31 06:58:00,23.9,23.3,30.00,SSW,202,4.4,7.6,98,0.00,,OVC010,0.00,VWS V14.01,2013-01-31 12:58:00,
2013-01-31 07:00:00,23.9,23.3,30.00,SW,226,6.1,6.4,98,0.00,,OVC010,0.00,VWS V14.01,2013-01-31 13:00:00,
2013-01-31 07:01:00,23.9,23.3,30.01,SW,226,3.9,7.0,98,0.00,,CLR,0.00,VWS V14.01,2013-01-31 13:01:00,
2013-01-31 07:02:00,23.9,23.3,30.00,SW,223,5.0,7.0,98,0.00,,OVC010,0.00,VWS V14.01,2013-01-31 13:02:00,
2013-01-31 07:04:00,24.1,23.5,30.00,SW,228,7.2,7.6,98,0.00,,OVC010,0.00,VWS V14.01,2013-01-31 13:04:00,
2013-01-31 07:06:00,24.1,23.5,30.01,SW,214,5.0,7.6,98,0.00,,CLR,0.00,VWS V14.01,2013-01-31 13:06:00,
2013-01-31 07:08:00,24.1,23.5,30.00,SW,218,5.0,7.6,98,0.00,,OVC010,0.00,VWS V14.01,2013-01-31 13:08:00,
2013-01-31 07:10:00,24.1,23.5,30.03,SSW,209,3.9,5.2,98,0.00,,OVC010,0.00,VWS V14.01,2013-01-31 13:10:00,
2013-01-31 07:11:00,24.1,23.5,30.03,WSW,244,3.9,5.2,98,0.00,,CLR,0.00,VWS V14.01,2013-01-31 13:11:00,
2013-01-31 07:12:00,24.1,23.5,30.03,SW,227,4.4,5.2,98,0.00,,OVC010,0.00,VWS V14.01,2013-01-31 13:12:00,
2013-01-31 07:14:00,24.1,23.5,30.03,SW,230,3.9,5.2,98,0.00,,OVC010,0.00,VWS V14.01,2013-01-31 13:14:00,
2013-01-31 07:16:00,23.9,23.3,30.03,WSW,240,4.4,5.2,98,0.00,,CLR,0.00,VWS V14.01,2013-01-31 13:16:00,
2013-01-31 07:18:00,23.9,23.3,30.03,WSW,240,4.4,5.2,98,0.00,,OVC010,0.00,VWS V14.01,2013-01-31 13:18:00,
2013-01-31 07:20:00,23.7,23.2,30.03,WSW,237,5.0,7.6,98,0.00,,OVC010,0.00,VWS V14.01,2013-01-31 13:20:00,
2013-01-31 07:21:00,23.7,23.2,30.03,SW,224,5.0,8.1,98,0.00,,CLR,0.00,VWS V14.01,2013-01-31 13:21:00,
2013-01-31 07:22:00,23.7,23.2,30.03,SW,214,6.7,8.1,98,0.00,,OVC010,0.00,VWS V14.01,2013-01-31 13:22:00,
2013-01-31 07:24:00,23.7,23.2,30.03,SSW,209,6.1,7.0,98,0.00,,OVC010,0.00,VWS V14.01,2013-01-31 13:24:00,
2013-01-31 07:26:00,23.9,23.3,30.03,SW,235,6.1,8.1,98,0.00,,CLR,0.00,VWS V14.01,2013-01-31 13:26:00,
2013-01-31 07:28:00,23.9,23.3,30.03,SSW,205,7.2,7.6,98,0.00,,OVC010,0.00,VWS V14.01,2013-01-31 13:28:00,
2013-01-31 07:30:00,23.9,23.3,30.03,SW,225,6.7,7.6,98,0.00,,OVC010,0.00,VWS V14.01,2013-01-31 13:30:00,
2013-01-31 07:31:00,24.1,23.5,30.03,SW,235,6.1,8.1,98,0.00,,CLR,0.00,VWS V14.01,2013-01-31 13:31:00,
2013-01-31 07:32:00,24.1,23.5,30.03,SSW,211,5.0,8.1,98,0.00,,OVC010,0.00,VWS V14.01,2013-01-31 13:32:00,
2013-01-31 07:34:00,24.1,23.5,30.03,SSW,212,6.1,6.4,98,0.00,,OVC010,0.00,VWS V14.01,2013-01-31 13:34:00,
2013-01-31 07:36:00,24.1,23.5,30.03,SW,222,5.0,7.6,98,0.00,,CLR,0.00,VWS V14.01,2013-01-31 13:36:00,
2013-01-31 07:38:00,24.3,23.7,30.03,SW,218,6.7,7.0,98,0.00,,OVC010,0.00,VWS V14.01,2013-01-31 13:38:00,
2013-01-31 07:40:00,24.3,23.7,30.03,SW,226,6.1,8.1,98,0.00,,OVC010,0.00,VWS V14.01,2013-01-31 13:40:00,
2013-01-31 07:41:00,24.4,23.9,30.03,SW,220,6.1,8.1,98,0.00,,CLR,0.00,VWS V14.01,2013-01-31 13:41:00,
2013-01-31 07:42:00,24.4,23.9,30.03,SW,224,6.7,8.1,98,0.00,,OVC010,0.00,VWS V14.01,2013-01-31 13:42:00,
2013-01-31 07:44:00,24.4,23.9,30.03,SW,214,6.7,7.6,98,0.00,,OVC010,0.00,VWS V14.01,2013-01-31 13:44:00,
2013-01-31 07:46:00,24.8,24.2,30.03,SSW,208,7.2,8.1,98,0.00,,CLR,0.00,VWS V14.01,2013-01-31 13:46:00,
2013-01-31 07:48:00,24.8,24.6,30.03,SW,219,6.7,8.7,99,0.00,,OVC010,0.00,VWS V14.01,2013-01-31 13:48:00,
2013-01-31 07:50:00,25.2,24.6,30.03,SSW,193,6.7,7.6,98,0.00,,OVC010,0.00,VWS V14.01,2013-01-31 13:50:00,
2013-01-31 07:51:00,25.2,24.6,30.03,SW,224,6.7,8.1,98,0.00,,CLR,0.00,VWS V14.01,2013-01-31 13:51:00,
2013-01-31 07:52:00,25.2,24.6,30.03,SSW,208,7.2,9.3,98,0.00,,OVC010,0.00,VWS V14.01,2013-01-31 13:52:00,
2013-01-31 07:54:00,25.3,24.8,30.03,SSW,212,7.2,9.9,98,0.00,,OVC010,0.00,VWS V14.01,2013-01-31 13:54:00,
2013-01-31 07:56:00,25.7,25.5,30.03,SW,217,7.2,10.8,99,0.00,,CLR,0.00,VWS V14.01,2013-01-31 13:56:00,
2013-01-31 07:58:00,25.9,25.6,30.03,SSW,196,5.0,9.9,99,0.00,,OVC010,0.00,VWS V14.01,2013-01-31 13:58:00,
2013-01-31 08:00:00,26.1,25.8,30.03,SSW,206,6.7,7.6,99,0.00,,OVC010,0.00,VWS V14.01,2013-01-31 14:00:00,
2013-01-31 08:01:00,26.2,26.0,30.03,SW,216,5.0,9.3,99,0.00,,CLR,0.00,VWS V14.01,2013-01-31 14:01:00,
2013-01-31 08:02:00,26.2,26.0,30.03,SSW,212,6.7,9.3,99,0.00,,OVC010,0.00,VWS V14.01,2013-01-31 14:02:00,
2013-01-31 08:04:00,26.4,26.2,30.03,SW,227,5.0,8.1,99,0.00,,OVC010,0.00,VWS V14.01,2013-01-31 14:04:00,
2013-01-31 08:06:00,26.6,26.4,30.03,SW,215,6.7,8.1,99,0.00,,OVC010,0.00,VWS V14.01,2013-01-31 14:06:00,
2013-01-31 08:07:00,26.8,26.2,30.03,SW,231,5.0,8.1,98,0.00,,CLR,0.00,VWS V14.01,2013-01-31 14:07:00,
2013-01-31 08:08:00,26.8,26.2,30.03,WSW,237,7.8,8.1,98,0.00,,OVC010,0.00,VWS V14.01,2013-01-31 14:08:00,
2013-01-31 08:10:00,27.0,26.4,30.03,SW,224,7.2,8.1,98,0.00,,OVC010,0.00,VWS V14.01,2013-01-31 14:10:00,
2013-01-31 08:12:00,27.3,26.8,30.03,SW,233,9.4,9.9,98,0.00,,CLR,0.00,VWS V14.01,2013-01-31 14:12:00,
2013-01-31 08:14:00,27.5,26.9,30.03,SW,228,9.4,9.9,98,0.00,,OVC010,0.00,VWS V14.01,2013-01-31 14:14:00,
2013-01-31 08:16:00,27.9,27.3,30.03,SSW,202,6.7,10.8,98,0.00,,OVC010,0.00,VWS V14.01,2013-01-31 14:16:00,
2013-01-31 08:17:00,27.9,27.3,30.03,SSW,209,6.7,8.1,98,0.00,,CLR,0.00,VWS V14.01,2013-01-31 14:17:00,
2013-01-31 08:18:00,27.9,27.3,30.03,SW,220,10.3,10.8,98,0.00,,OVC010,0.00,VWS V14.01,2013-01-31 14:18:00,
2013-01-31 08:20:00,28.2,27.6,30.03,SSW,211,7.2,10.8,98,0.00,,OVC010,0.00,VWS V14.01,2013-01-31 14:20:00,
2013-01-31 08:22:00,28.4,27.5,30.03,SW,233,10.0,10.8,96,0.00,,CLR,0.00,VWS V14.01,2013-01-31 14:22:00,
2013-01-31 08:24:00,28.6,27.3,30.03,SW,236,7.2,10.8,95,0.00,,OVC010,0.00,VWS V14.01,2013-01-31 14:24:00,
2013-01-31 08:26:00,28.8,27.5,30.03,SW,217,8.9,11.3,95,0.00,,OVC010,0.00,VWS V14.01,2013-01-31 14:26:00,
2013-01-31 08:27:00,28.9,27.7,30.03,SSW,208,9.4,11.3,95,0.00,,CLR,0.00,VWS V14.01,2013-01-31 14:27:00,
2013-01-31 08:28:00,28.9,27.4,30.03,SW,218,7.2,10.5,94,0.00,,OVC010,0.00,VWS V14.01,2013-01-31 14:28:00,
2013-01-31 08:30:00,29.3,27.7,30.03,SSW,208,7.2,9.9,94,0.00,,OVC010,0.00,VWS V14.01,2013-01-31 14:30:00,
2013-01-31 08:32:00,29.5,27.9,30.03,SW,221,7.8,9.3,94,0.00,,CLR,0.00,VWS V14.01,2013-01-31 14:32:00,
2013-01-31 08:34:00,29.7,28.1,30.03,South,185,7.8,9.3,94,0.00,,OVC010,0.00,VWS V14.01,2013-01-31 14:34:00,
2013-01-31 08:36:00,30.0,27.7,30.03,SSW,211,6.1,10.5,91,0.00,,OVC010,0.00,VWS V14.01,2013-01-31 14:36:00,
2013-01-31 08:37:00,30.0,27.7,30.03,SSW,209,6.7,9.9,91,0.00,,CLR,0.00,VWS V14.01,2013-01-31 14:37:00,
2013-01-31 08:38:00,30.0,27.7,30.03,SW,232,7.8,8.1,91,0.00,,OVC010,0.00,VWS V14.01,2013-01-31 14:38:00,
2013-01-31 08:40:00,30.4,27.7,30.03,SW,231,6.7,8.1,90,0.00,,OVC010,0.00,VWS V14.01,2013-01-31 14:40:00,
2013-01-31 08:42:00,30.6,27.6,30.03,SW,219,6.1,10.5,88,0.00,,CLR,0.00,VWS V14.01,2013-01-31 14:42:00,
2013-01-31 08:44:00,30.7,27.0,30.03,SW,223,9.4,10.8,86,0.00,,OVC010,0.00,VWS V14.01,2013-01-31 14:44:00,
2013-01-31 08:46:00,30.9,27.2,30.03,SW,226,7.2,9.9,86,0.00,,OVC010,0.00,VWS V14.01,2013-01-31 14:46:00,
2013-01-31 08:47:00,30.9,27.2,30.03,SSW,204,7.8,9.9,86,0.00,,CLR,0.00,VWS V14.01,2013-01-31 14:47:00,
2013-01-31 08:48:00,31.1,27.0,30.03,SW,215,9.4,9.9,84,0.00,,OVC010,0.00,VWS V14.01,2013-01-31 14:48:00,
2013-01-31 08:50:00,31.3,26.8,30.03,SSW,204,8.3,11.3,83,0.00,,OVC010,0.00,VWS V14.01,2013-01-31 14:50:00,
2013-01-31 08:52:00,31.5,25.8,30.03,SW,216,7.8,9.9,79,0.00,,CLR,0.00,VWS V14.01,2013-01-31 14:52:00,
2013-01-31 08:54:00,31.6,24.7,30.06,WSW,253,10.0,14.2,75,0.00,,OVC010,0.00,VWS V14.01,2013-01-31 14:54:00,
2013-01-31 08:56:00,31.8,24.9,30.06,SW,236,7.2,10.5,75,0.00,,OVC010,0.00,VWS V14.01,2013-01-31 14:56:00,
2013-01-31 08:57:00,32.0,25.1,30.06,SSW,207,9.4,10.8,75,0.00,,CLR,0.00,VWS V14.01,2013-01-31 14:57:00,
2013-01-31 08:58:00,32.0,25.1,30.06,SSW,213,10.8,11.3,75,0.00,,OVC010,0.00,VWS V14.01,2013-01-31 14:58:00,
2013-01-31 09:00:00,32.2,26.1,30.06,SW,216,8.9,12.5,78,0.00,,OVC010,0.00,VWS V14.01,2013-01-31 15:00:00,
2013-01-31 09:02:00,32.4,25.8,30.06,SW,220,7.2,13.7,77,0.00,,CLR,0.00,VWS V14.01,2013-01-31 15:02:00,
2013-01-31 09:04:00,32.5,25.6,30.06,SSW,210,3.9,9.3,75,0.00,,OVC010,0.00,VWS V14.01,2013-01-31 15:04:00,
2013-01-31 09:06:00,32.7,26.2,30.06,SW,227,7.8,13.7,77,0.00,,OVC010,0.00,VWS V14.01,2013-01-31 15:06:00,
2013-01-31 09:07:00,32.7,25.8,30.06,SW,219,6.7,13.7,75,0.00,,CLR,0.00,VWS V14.01,2013-01-31 15:07:00,
2013-01-31 09:08:00,32.9,25.5,30.06,SW,221,6.7,13.7,74,0.00,,OVC010,0.00,VWS V14.01,2013-01-31 15:08:00,
2013-01-31 09:10:00,33.1,26.1,30.06,SW,223,6.7,9.9,75,0.00,,OVC010,0.00,VWS V14.01,2013-01-31 15:10:00,
2013-01-31 09:12:00,33.3,26.3,30.06,SW,222,7.2,10.5,75,0.00,,CLR,0.00,VWS V14.01,2013-01-31 15:12:00,
2013-01-31 09:14:00,33.3,25.9,30.06,SSW,207,7.8,10.5,74,0.00,,OVC010,0.00,VWS V14.01,2013-01-31 15:14:00,
2013-01-31 09:16:00,33.6,26.6,30.06,SW,225,8.9,11.3,75,0.00,,OVC010,0.00,VWS V14.01,2013-01-31 15:16:00,
2013-01-31 09:17:00,33.6,26.6,30.06,WSW,246,10.8,11.3,75,0.00,,CLR,0.00,VWS V14.01,2013-01-31 15:17:00,
2013-01-31 09:18:00,33.8,26.8,30.06,WSW,241,9.4,11.3,75,0.00,,OVC010,0.00,VWS V14.01,2013-01-31 15:18:00,
2013-01-31 09:20:00,34.0,27.4,30.06,WSW,256,9.4,13.7,77,0.00,,OVC010,0.00,VWS V14.01,2013-01-31 15:20:00,
2013-01-31 09:22:00,34.3,27.8,30.06,WNW,282,9.4,11.3,77,0.00,,CLR,0.00,VWS V14.01,2013-01-31 15:22:00,
2013-01-31 09:24:00,34.5,27.9,30.06,SW,224,12.5,13.1,77,0.00,,OVC010,0.00,VWS V14.01,2013-01-31 15:24:00,
2013-01-31 09:26:00,34.7,27.7,30.06,WSW,252,6.7,13.1,75,0.00,,OVC010,0.00,VWS V14.01,2013-01-31 15:26:00,
2013-01-31 09:27:00,34.9,27.9,30.06,SSW,206,7.2,9.9,75,0.00,,CLR,0.00,VWS V14.01,2013-01-31 15:27:00,
2013-01-31 09:28:00,34.9,27.9,30.06,WSW,239,10.0,10.5,75,0.00,,OVC010,0.00,VWS V14.01,2013-01-31 15:28:00,
2013-01-31 09:30:00,35.1,27.6,30.06,SW,220,7.2,10.8,74,0.00,,OVC010,0.00,VWS V14.01,2013-01-31 15:30:00,
2013-01-31 09:32:00,35.2,27.8,30.06,WNW,286,8.3,9.9,74,0.00,,CLR,0.00,VWS V14.01,2013-01-31 15:32:00,
2013-01-31 09:34:00,35.6,28.1,30.06,West,278,7.8,9.3,74,0.00,,OVC010,0.00,VWS V14.01,2013-01-31 15:34:00,
2013-01-31 09:36:00,35.8,27.9,30.06,West,274,6.7,11.3,73,0.00,,OVC010,0.00,VWS V14.01,2013-01-31 15:36:00,
2013-01-31 09:37:00,35.8,27.9,30.06,WSW,245,6.1,11.3,73,0.00,,CLR,0.00,VWS V14.01,2013-01-31 15:37:00,
2013-01-31 09:38:00,36.0,28.0,30.06,SW,232,7.2,8.7,73,0.00,,OVC010,0.00,VWS V14.01,2013-01-31 15:38:00,
2013-01-31 09:40:00,36.3,28.4,30.06,SW,226,7.2,9.9,73,0.00,,OVC010,0.00,VWS V14.01,2013-01-31 15:40:00,
2013-01-31 09:42:00,36.5,28.5,30.06,WSW,249,7.8,9.9,73,0.00,,CLR,0.00,VWS V14.01,2013-01-31 15:42:00,
2013-01-31 09:44:00,36.7,28.3,30.06,WSW,254,6.7,11.9,71,0.00,,OVC010,0.00,VWS V14.01,2013-01-31 15:44:00,
2013-01-31 09:46:00,37.0,28.6,30.06,SW,227,7.8,10.8,71,0.00,,OVC010,0.00,VWS V14.01,2013-01-31 15:46:00,
2013-01-31 09:47:00,37.0,28.6,30.06,WNW,289,7.8,10.5,71,0.00,,CLR,0.00,VWS V14.01,2013-01-31 15:47:00,
2013-01-31 09:48:00,37.2,28.8,30.06,West,277,10.3,10.8,71,0.00,,OVC010,0.00,VWS V14.01,2013-01-31 15:48:00,
2013-01-31 09:50:00,37.6,28.7,30.06,West,267,10.0,10.8,70,0.00,,OVC010,0.00,VWS V14.01,2013-01-31 15:50:00,
2013-01-31 09:52:00,37.8,28.9,30.06,WSW,256,7.2,11.3,70,0.00,,CLR,0.00,VWS V14.01,2013-01-31 15:52:00,
2013-01-31 09:54:00,37.9,29.0,30.09,West,260,7.2,11.3,70,0.00,,OVC010,0.00,VWS V14.01,2013-01-31 15:54:00,
2013-01-31 09:56:00,38.1,29.2,30.09,WNW,286,6.7,11.3,70,0.00,,OVC010,0.00,VWS V14.01,2013-01-31 15:56:00,
2013-01-31 09:57:00,38.5,29.5,30.09,WSW,243,7.8,11.3,70,0.00,,CLR,0.00,VWS V14.01,2013-01-31 15:57:00,
2013-01-31 09:58:00,38.5,29.5,30.09,West,259,7.2,9.3,70,0.00,,OVC010,0.00,VWS V14.01,2013-01-31 15:58:00,
2013-01-31 10:00:00,38.7,29.2,30.09,West,259,7.8,10.8,69,0.00,,OVC010,0.00,VWS V14.01,2013-01-31 16:00:00,
2013-01-31 10:02:00,39.0,29.6,30.09,WSW,249,9.4,13.1,69,0.00,,CLR,0.00,VWS V14.01,2013-01-31 16:02:00,
2013-01-31 10:04:00,39.2,29.3,30.09,West,277,7.8,11.3,67,0.00,,OVC010,0.00,VWS V14.01,2013-01-31 16:04:00,
2013-01-31 10:06:00,39.6,29.1,30.09,West,271,7.8,11.3,66,0.00,,OVC010,0.00,VWS V14.01,2013-01-31 16:06:00,
2013-01-31 10:07:00,39.7,29.3,30.09,West,262,7.8,11.3,66,0.00,,CLR,0.00,VWS V14.01,2013-01-31 16:07:00,
2013-01-31 10:08:00,39.9,29.5,30.09,WSW,247,10.8,11.3,66,0.00,,OVC010,0.00,VWS V14.01,2013-01-31 16:08:00,
2013-01-31 10:10:00,40.3,29.4,30.09,WSW,256,13.6,14.2,65,0.00,,OVC010,0.00,VWS V14.01,2013-01-31 16:10:00,
2013-01-31 10:12:00,40.5,29.5,30.09,SW,234,10.8,13.1,65,0.00,,CLR,0.00,VWS V14.01,2013-01-31 16:12:00,
2013-01-31 10:14:00,40.8,29.4,30.09,West,273,11.4,11.9,63,0.00,,OVC010,0.00,VWS V14.01,2013-01-31 16:14:00,
2013-01-31 10:16:00,41.2,29.2,30.09,West,281,10.0,13.7,62,0.00,,OVC010,0.00,VWS V14.01,2013-01-31 16:16:00,
2013-01-31 10:17:00,41.4,28.8,30.09,SW,236,8.9,13.7,61,0.00,,CLR,0.00,VWS V14.01,2013-01-31 16:17:00,
2013-01-31 10:18:00,41.5,29.0,30.09,West,273,12.5,13.7,61,0.00,,OVC010,0.00,VWS V14.01,2013-01-31 16:18:00,
2013-01-31 10:20:00,41.7,28.6,30.09,WNW,289,11.9,19.5,59,0.00,,OVC010,0.00,VWS V14.01,2013-01-31 16:20:00,
2013-01-31 10:22:00,41.9,28.2,30.09,WSW,258,12.5,20.1,58,0.00,,CLR,0.00,VWS V14.01,2013-01-31 16:22:00,
2013-01-31 10:24:00,42.1,28.4,30.09,West,272,19.1,20.1,58,0.00,,OVC010,0.00,VWS V14.01,2013-01-31 16:24:00,
2013-01-31 10:26:00,42.3,27.5,30.09,West,276,20.2,21.2,55,0.00,,OVC010,0.00,VWS V14.01,2013-01-31 16:26:00,
2013-01-31 10:27:00,42.3,27.5,30.09,WNW,301,18.0,21.2,55,0.00,,CLR,0.00,VWS V14.01,2013-01-31 16:27:00,
2013-01-31 10:28:00,42.3,27.5,30.09,WNW,291,13.0,21.2,55,0.00,,OVC010,0.00,VWS V14.01,2013-01-31 16:28:00,
2013-01-31 10:30:00,42.3,27.5,30.09,West,277,15.8,19.5,55,0.00,,OVC010,0.00,VWS V14.01,2013-01-31 16:30:00,
2013-01-31 10:32:00,42.1,26.1,30.09,WNW,299,16.9,19.5,53,0.00,,CLR,0.00,VWS V14.01,2013-01-31 16:32:00,
2013-01-31 10:34:00,42.1,26.7,30.09,West,279,15.8,19.5,54,0.00,,OVC010,0.00,VWS V14.01,2013-01-31 16:34:00,
2013-01-31 10:36:00,42.1,26.7,30.09,West,270,13.0,19.5,54,0.00,,OVC010,0.00,VWS V14.01,2013-01-31 16:36:00,
2013-01-31 10:37:00,42.1,26.7,30.09,West,269,13.0,19.5,54,0.00,,CLR,0.00,VWS V14.01,2013-01-31 16:37:00,
2013-01-31 10:38:00,42.1,26.7,30.09,West,276,13.6,17.2,54,0.00,,OVC010,0.00,VWS V14.01,2013-01-31 16:38:00,
2013-01-31 10:40:00,42.1,26.1,30.09,SW,231,15.3,16.6,53,0.00,,OVC010,0.00,VWS V14.01,2013-01-31 16:40:00,
2013-01-31 10:42:00,42.1,26.1,30.09,WSW,248,9.4,13.7,53,0.00,,FEW100,0.00,VWS V14.01,2013-01-31 16:42:00,
2013-01-31 10:44:00,42.3,26.9,30.09,SW,221,12.5,13.1,54,0.00,,OVC010,0.00,VWS V14.01,2013-01-31 16:44:00,
2013-01-31 10:46:00,42.4,27.0,30.09,WSW,239,13.0,14.2,54,0.00,,OVC010,0.00,VWS V14.01,2013-01-31 16:46:00,
2013-01-31 10:47:00,42.4,26.4,30.09,WSW,246,10.8,17.2,53,0.00,,FEW100,0.00,VWS V14.01,2013-01-31 16:47:00,
2013-01-31 10:48:00,42.4,26.4,30.09,West,271,13.0,17.2,53,0.00,,OVC010,0.00,VWS V14.01,2013-01-31 16:48:00,
2013-01-31 10:50:00,42.8,26.8,30.09,West,270,16.4,17.2,53,0.00,,OVC010,0.00,VWS V14.01,2013-01-31 16:50:00,
2013-01-31 10:52:00,42.8,26.8,30.09,West,276,14.7,17.2,53,0.00,,FEW100,0.00,VWS V14.01,2013-01-31 16:52:00,
2013-01-31 10:54:00,42.8,26.8,30.09,WNW,289,15.8,17.2,53,0.00,,OVC010,0.00,VWS V14.01,2013-01-31 16:54:00,
2013-01-31 10:56:00,42.6,26.6,30.09,WNW,284,10.8,17.7,53,0.00,,OVC010,0.00,VWS V14.01,2013-01-31 16:56:00,
2013-01-31 10:57:00,42.6,26.6,30.09,West,260,12.5,16.0,53,0.00,,FEW100,0.00,VWS V14.01,2013-01-31 16:57:00,
2013-01-31 10:58:00,42.6,26.6,30.09,WSW,250,10.0,16.0,53,0.00,,OVC010,0.00,VWS V14.01,2013-01-31 16:58:00,
2013-01-31 11:00:00,42.8,26.8,30.09,WNW,286,10.3,17.2,53,0.00,,OVC010,0.00,VWS V14.01,2013-01-31 17:00:00,
2013-01-31 11:02:00,42.8,26.8,30.09,West,266,9.4,14.2,53,0.00,,FEW100,0.00,VWS V14.01,2013-01-31 17:02:00,
2013-01-31 11:04:00,43.0,26.9,30.09,WNW,285,14.7,15.4,53,0.00,,OVC010,0.00,VWS V14.01,2013-01-31 17:04:00,
2013-01-31 11:06:00,43.3,27.3,30.09,WNW,284,10.0,16.0,53,0.00,,OVC010,0.00,VWS V14.01,2013-01-31 17:06:00,
2013-01-31 11:07:00,43.5,27.5,30.09,West,278,11.4,16.6,53,0.00,,FEW100,0.00,VWS V14.01,2013-01-31 17:07:00,
2013-01-31 11:08:00,43.5,27.5,30.09,West,274,11.9,16.6,53,0.00,,OVC010,0.00,VWS V14.01,2013-01-31 17:08:00,
2013-01-31 11:10:00,43.7,27.6,30.09,West,275,13.0,13.7,53,0.00,,OVC010,0.00,VWS V14.01,2013-01-31 17:10:00,
2013-01-31 11:12:00,43.7,27.0,30.09,NW,304,10.3,14.2,51,0.00,,OVC010,0.00,VWS V14.01,2013-01-31 17:12:00,
2013-01-31 11:13:00,43.7,27.0,30.09,WNW,301,10.0,14.2,51,0.00,,FEW100,0.00,VWS V14.01,2013-01-31 17:13:00,
2013-01-31 11:14:00,43.7,27.0,30.09,WNW,294,12.5,17.2,51,0.00,,OVC010,0.00,VWS V14.01,2013-01-31 17:14:00,
2013-01-31 11:16:00,43.7,27.0,30.09,WNW,291,12.5,15.4,51,0.00,,OVC010,0.00,VWS V14.01,2013-01-31 17:16:00,
2013-01-31 11:18:00,43.7,27.0,30.09,WNW,291,9.4,14.2,51,0.00,,FEW100,0.00,VWS V14.01,2013-01-31 17:18:00,
2013-01-31 11:20:00,43.7,27.0,30.09,West,281,13.0,14.2,51,0.00,,OVC010,0.00,VWS V14.01,2013-01-31 17:20:00,
2013-01-31 11:22:00,43.7,27.0,30.09,WSW,258,13.6,14.2,51,0.00,,OVC010,0.00,VWS V14.01,2013-01-31 17:22:00,
2013-01-31 11:23:00,44.1,27.3,30.09,West,271,10.3,16.0,51,0.00,,BKN110,0.00,VWS V14.01,2013-01-31 17:23:00,
2013-01-31 11:24:00,44.1,28.0,30.09,West,264,10.8,16.0,53,0.00,,OVC010,0.00,VWS V14.01,2013-01-31 17:24:00,
2013-01-31 11:26:00,44.2,28.1,30.09,NW,305,13.0,13.7,53,0.00,,OVC010,0.00,VWS V14.01,2013-01-31 17:26:00,
2013-01-31 11:28:00,44.6,27.8,30.09,West,276,12.5,14.2,51,0.00,,BKN110,0.00,VWS V14.01,2013-01-31 17:28:00,
2013-01-31 11:30:00,44.8,28.0,30.09,WNW,293,16.4,17.2,51,0.00,,OVC010,0.00,VWS V14.01,2013-01-31 17:30:00,
2013-01-31 11:32:00,44.8,28.0,30.09,West,261,10.0,17.2,51,0.00,,OVC010,0.00,VWS V14.01,2013-01-31 17:32:00,
2013-01-31 11:33:00,45.0,28.2,30.09,West,280,10.3,14.2,51,0.00,,BKN110,0.00,VWS V14.01,2013-01-31 17:33:00,
2013-01-31 11:34:00,45.1,28.3,30.09,WSW,256,10.0,13.7,51,0.00,,OVC010,0.00,VWS V14.01,2013-01-31 17:34:00,
2013-01-31 11:36:00,45.1,28.3,30.09,WSW,247,10.0,11.3,51,0.00,,OVC010,0.00,VWS V14.01,2013-01-31 17:36:00,
2013-01-31 11:38:00,45.3,28.5,30.09,West,274,11.4,14.2,51,0.00,,OVC120,0.00,VWS V14.01,2013-01-31 17:38:00,
2013-01-31 11:40:00,45.3,28.5,30.09,SW,236,10.0,11.9,51,0.00,,OVC010,0.00,VWS V14.01,2013-01-31 17:40:00,
2013-01-31 11:42:00,45.3,28.5,30.09,WSW,251,12.5,16.6,51,0.00,,OVC010,0.00,VWS V14.01,2013-01-31 17:42:00,
2013-01-31 11:43:00,45.3,28.5,30.09,WNW,290,7.8,16.6,51,0.00,,OVC120,0.00,VWS V14.01,2013-01-31 17:43:00,
2013-01-31 11:44:00,45.3,28.5,30.09,SW,231,7.2,13.1,51,0.00,,OVC010,0.00,VWS V14.01,2013-01-31 17:44:00,
2013-01-31 11:46:00,45.5,28.7,30.09,WNW,297,11.9,13.1,51,0.00,,OVC010,0.00,VWS V14.01,2013-01-31 17:46:00,
2013-01-31 11:48:00,45.7,28.8,30.09,West,277,15.8,16.6,51,0.00,,OVC120,0.00,VWS V14.01,2013-01-31 17:48:00,
2013-01-31 11:50:00,45.9,29.0,30.09,West,271,7.8,17.2,51,0.00,,OVC010,0.00,VWS V14.01,2013-01-31 17:50:00,
2013-01-31 11:52:00,46.0,29.2,30.09,WSW,253,9.4,11.3,51,0.00,,OVC010,0.00,VWS V14.01,2013-01-31 17:52:00,
2013-01-31 11:53:00,46.2,29.3,30.09,NW,305,10.8,12.5,51,0.00,,OVC120,0.00,VWS V14.01,2013-01-31 17:53:00,
2013-01-31 11:54:00,46.2,29.3,30.12,WNW,292,10.0,12.5,51,0.00,,OVC010,0.00,VWS V14.01,2013-01-31 17:54:00,
2013-01-31 11:56:00,46.6,29.0,30.12,NW,305,9.4,14.2,50,0.00,,OVC010,0.00,VWS V14.01,2013-01-31 17:56:00,
2013-01-31 11:58:00,46.6,29.0,30.12,WSW,245,9.4,15.4,50,0.00,,OVC120,0.00,VWS V14.01,2013-01-31 17:58:00,
2013-01-31 12:00:00,46.6,29.0,30.12,WSW,245,14.1,16.6,50,0.00,,OVC010,0.00,VWS V14.01,2013-01-31 18:00:00,
2013-01-31 12:02:00,46.4,28.9,30.12,WNW,292,15.8,17.2,50,0.00,,OVC010,0.00,VWS V14.01,2013-01-31 18:02:00,
2013-01-31 12:03:00,46.4,28.2,30.12,WNW,293,13.6,17.2,49,0.00,,FEW120,0.00,VWS V14.01,2013-01-31 18:03:00,
2013-01-31 12:04:00,46.2,28.7,30.12,NW,305,7.2,16.6,50,0.00,,OVC010,0.00,VWS V14.01,2013-01-31 18:04:00,
2013-01-31 12:06:00,46.0,28.5,30.12,WNW,299,10.0,14.2,50,0.00,,OVC010,0.00,VWS V14.01,2013-01-31 18:06:00,
2013-01-31 12:08:00,46.0,28.5,30.12,West,281,9.4,13.1,50,0.00,,FEW120,0.00,VWS V14.01,2013-01-31 18:08:00,
2013-01-31 12:10:00,46.0,28.5,30.12,WNW,300,6.7,14.2,50,0.00,,OVC010,0.00,VWS V14.01,2013-01-31 18:10:00,
2013-01-31 12:12:00,46.4,28.9,30.12,WSW,253,13.6,17.2,50,0.00,,OVC010,0.00,VWS V14.01,2013-01-31 18:12:00,
2013-01-31 12:13:00,46.6,29.0,30.12,WNW,284,7.2,14.2,50,0.00,,FEW120,0.00,VWS V14.01,2013-01-31 18:13:00,
2013-01-31 12:14:00,46.6,29.0,30.12,WSW,254,10.8,14.2,50,0.00,,OVC010,0.00,VWS V14.01,2013-01-31 18:14:00,
2013-01-31 12:16:00,46.8,29.2,30.12,NW,313,13.6,17.7,50,0.00,,OVC010,0.00,VWS V14.01,2013-01-31 18:16:00,
2013-01-31 12:18:00,46.8,28.5,30.12,West,278,13.0,17.2,49,0.00,,FEW120,0.00,VWS V14.01,2013-01-31 18:18:00,
2013-01-31 12:20:00,46.8,28.5,30.12,WNW,295,14.7,15.4,49,0.00,,OVC010,0.00,VWS V14.01,2013-01-31 18:20:00,
2013-01-31 12:22:00,46.6,28.4,30.12,WNW,290,7.2,16.0,49,0.00,,OVC010,0.00,VWS V14.01,2013-01-31 18:22:00,
2013-01-31 12:23:00,46.4,28.2,30.12,West,277,13.6,14.2,49,0.00,,CLR,0.00,VWS V14.01,2013-01-31 18:23:00,
2013-01-31 12:24:00,46.4,28.2,30.12,WNW,285,11.9,14.2,49,0.00,,OVC010,0.00,VWS V14.01,2013-01-31 18:24:00,
2013-01-31 12:26:00,46.4,28.2,30.12,WNW,282,13.0,20.1,49,0.00,,OVC010,0.00,VWS V14.01,2013-01-31 18:26:00,
2013-01-31 12:28:00,46.4,28.2,30.12,WNW,289,11.9,19.5,49,0.00,,CLR,0.00,VWS V14.01,2013-01-31 18:28:00,
2013-01-31 12:30:00,46.4,28.2,30.12,WNW,289,7.8,13.7,49,0.00,,OVC010,0.00,VWS V14.01,2013-01-31 18:30:00,
2013-01-31 12:32:00,46.4,28.2,30.12,WNW,291,13.6,14.2,49,0.00,,OVC010,0.00,VWS V14.01,2013-01-31 18:32:00,
2013-01-31 12:33:00,46.4,28.2,30.12,West,281,18.0,18.9,49,0.00,,CLR,0.00,VWS V14.01,2013-01-31 18:33:00,
2013-01-31 12:34:00,46.4,28.2,30.12,WNW,286,14.1,18.9,49,0.00,,OVC010,0.00,VWS V14.01,2013-01-31 18:34:00,
2013-01-31 12:36:00,46.6,28.4,30.12,NW,306,10.3,14.8,49,0.00,,OVC010,0.00,VWS V14.01,2013-01-31 18:36:00,
2013-01-31 12:38:00,46.6,28.4,30.12,WNW,299,13.6,17.2,49,0.00,,CLR,0.00,VWS V14.01,2013-01-31 18:38:00,
2013-01-31 12:40:00,46.6,28.4,30.12,NW,304,10.0,17.2,49,0.00,,OVC010,0.00,VWS V14.01,2013-01-31 18:40:00,
2013-01-31 12:42:00,46.6,28.4,30.12,WNW,283,7.8,19.5,49,0.00,,OVC010,0.00,VWS V14.01,2013-01-31 18:42:00,
2013-01-31 12:43:00,46.6,28.4,30.12,West,262,15.8,16.6,49,0.00,,CLR,0.00,VWS V14.01,2013-01-31 18:43:00,
2013-01-31 12:44:00,46.6,28.4,30.12,West,272,10.0,16.6,49,0.00,,OVC010,0.00,VWS V14.01,2013-01-31 18:44:00,
2013-01-31 12:46:00,46.6,28.4,30.12,West,261,13.0,18.9,49,0.00,,OVC010,0.00,VWS V14.01,2013-01-31 18:46:00,
2013-01-31 12:48:00,46.8,28.5,30.12,NNW,348,8.3,13.1,49,0.00,,CLR,0.00,VWS V14.01,2013-01-31 18:48:00,
2013-01-31 12:50:00,46.9,28.7,30.12,NW,305,10.3,10.8,49,0.00,,OVC010,0.00,VWS V14.01,2013-01-31 18:50:00,
2013-01-31 12:52:00,47.3,29.7,30.12,WNW,292,11.9,15.4,50,0.00,,OVC010,0.00,VWS V14.01,2013-01-31 18:52:00,
2013-01-31 12:53:00,47.3,29.0,30.12,NW,314,5.0,16.0,49,0.00,,CLR,0.00,VWS V14.01,2013-01-31 18:53:00,
2013-01-31 12:54:00,47.3,29.0,30.09,WNW,288,0.0,16.0,49,0.00,,OVC010,0.00,VWS V14.01,2013-01-31 18:54:00,
2013-01-31 12:56:00,47.5,29.9,30.09,West,270,13.6,14.2,50,0.00,,OVC010,0.00,VWS V14.01,2013-01-31 18:56:00,
2013-01-31 12:58:00,47.5,29.2,30.09,WNW,296,3.9,16.6,49,0.00,,CLR,0.00,VWS V14.01,2013-01-31 18:58:00,
2013-01-31 13:00:00,47.5,29.2,30.09,WNW,297,12.5,13.1,49,0.00,,OVC010,0.00,VWS V14.01,2013-01-31 19:00:00,
2013-01-31 13:02:00,47.7,29.4,30.09,WNW,287,10.8,13.1,49,0.00,,OVC010,0.00,VWS V14.01,2013-01-31 19:02:00,
2013-01-31 13:03:00,47.7,29.4,30.09,WNW,297,10.3,14.2,49,0.00,,CLR,0.00,VWS V14.01,2013-01-31 19:03:00,
2013-01-31 13:04:00,47.7,29.4,30.09,WNW,288,13.6,14.2,49,0.00,,OVC010,0.00,VWS V14.01,2013-01-31 19:04:00,
2013-01-31 13:06:00,47.7,29.4,30.09,WNW,285,7.2,13.1,49,0.00,,OVC010,0.00,VWS V14.01,2013-01-31 19:06:00,
2013-01-31 13:08:00,47.8,29.5,30.09,NNW,331,7.8,11.9,49,0.00,,CLR,0.00,VWS V14.01,2013-01-31 19:08:00,
2013-01-31 13:10:00,47.8,28.9,30.09,North,9,9.4,16.0,48,0.00,,OVC010,0.00,VWS V14.01,2013-01-31 19:10:00,
2013-01-31 13:12:00,47.8,28.9,30.09,WNW,303,3.3,10.8,48,0.00,,OVC010,0.00,VWS V14.01,2013-01-31 19:12:00,
2013-01-31 13:13:00,47.8,28.9,30.09,NNW,341,12.5,13.1,48,0.00,,CLR,0.00,VWS V14.01,2013-01-31 19:13:00,
2013-01-31 13:14:00,47.8,28.2,30.09,NW,321,4.4,13.1,46,0.00,,OVC010,0.00,VWS V14.01,2013-01-31 19:14:00,
2013-01-31 13:16:00,47.7,28.0,30.09,WNW,302,3.3,10.5,46,0.00,,OVC010,0.00,VWS V14.01,2013-01-31 19:16:00,
2013-01-31 13:18:00,47.5,27.9,30.09,NNW,330,10.3,16.6,46,0.00,,OVC010,0.00,VWS V14.01,2013-01-31 19:18:00,
2013-01-31 13:19:00,47.5,27.9,30.09,NW,315,10.0,16.6,46,0.00,,CLR,0.00,VWS V14.01,2013-01-31 19:19:00,
2013-01-31 13:20:00,47.3,27.7,30.09,WNW,285,10.0,13.7,46,0.00,,OVC010,0.00,VWS V14.01,2013-01-31 19:20:00,
2013-01-31 13:22:00,47.3,28.4,30.09,NW,324,9.4,10.5,48,0.00,,OVC010,0.00,VWS V14.01,2013-01-31 19:22:00,
2013-01-31 13:23:00,47.3,28.4,30.09,North,1,6.7,11.3,48,0.00,,CLR,0.00,VWS V14.01,2013-01-31 19:23:00,
2013-01-31 13:24:00,47.3,28.4,30.09,North,0,3.3,11.3,48,0.00,,OVC010,0.00,VWS V14.01,2013-01-31 19:24:00,
2013-01-31 13:26:00,47.3,28.4,30.12,North,357,5.0,13.1,48,0.00,,OVC010,0.00,VWS V14.01,2013-01-31 19:26:00,
2013-01-31 13:28:00,47.3,28.4,30.12,NNW,328,7.8,13.1,48,0.00,,OVC010,0.00,VWS V14.01,2013-01-31 19:28:00,
2013-01-31 13:29:00,47.1,28.2,30.12,NNE,18,6.7,13.1,48,0.00,,CLR,0.00,VWS V14.01,2013-01-31 19:29:00,
2013-01-31 13:30:00,47.1,28.2,30.12,North,357,7.2,9.9,48,0.00,,OVC010,0.00,VWS V14.01,2013-01-31 19:30:00,
2013-01-31 13:32:00,46.9,28.0,30.12,NNW,328,5.0,7.6,48,0.00,,OVC010,0.00,VWS V14.01,2013-01-31 19:32:00,
2013-01-31 13:34:00,46.9,28.0,30.12,NNW,345,6.1,10.8,48,0.00,,CLR,0.00,VWS V14.01,2013-01-31 19:34:00,
2013-01-31 13:36:00,46.8,27.9,30.12,West,278,9.4,14.2,48,0.00,,OVC010,0.00,VWS V14.01,2013-01-31 19:36:00,
2013-01-31 13:38:00,46.6,28.4,30.12,NNW,335,3.9,10.8,49,0.00,,OVC010,0.00,VWS V14.01,2013-01-31 19:38:00,
2013-01-31 13:39:00,46.4,28.2,30.12,NNW,336,5.0,10.8,49,0.00,,CLR,0.00,VWS V14.01,2013-01-31 19:39:00,
2013-01-31 13:40:00,46.2,28.0,30.12,NW,308,5.0,10.8,49,0.00,,OVC010,0.00,VWS V14.01,2013-01-31 19:40:00,
2013-01-31 13:42:00,46.0,27.9,30.12,NW,315,2.8,9.9,49,0.00,,OVC010,0.00,VWS V14.01,2013-01-31 19:42:00,
2013-01-31 13:44:00,45.9,27.7,30.12,WNW,295,7.2,10.5,49,0.00,,CLR,0.00,VWS V14.01,2013-01-31 19:44:00,
2013-01-31 13:46:00,45.7,27.5,30.12,NNW,345,6.1,8.1,49,0.00,,OVC010,0.00,VWS V14.01,2013-01-31 19:46:00,
2013-01-31 13:48:00,45.5,27.4,30.12,NNE,29,13.0,13.7,49,0.00,,OVC010,0.00,VWS V14.01,2013-01-31 19:48:00,
2013-01-31 13:49:00,45.5,27.4,30.12,NNW,335,7.8,14.2,49,0.00,,CLR,0.00,VWS V14.01,2013-01-31 19:49:00,
2013-01-31 13:50:00,45.3,27.2,30.12,NW,321,4.4,16.0,49,0.00,,OVC010,0.00,VWS V14.01,2013-01-31 19:50:00,
2013-01-31 13:52:00,45.1,27.1,30.12,NNW,335,10.3,16.6,49,0.00,,OVC010,0.00,VWS V14.01,2013-01-31 19:52:00,
2013-01-31 13:54:00,44.8,26.1,30.12,WNW,291,11.9,13.7,48,0.00,,CLR,0.00,VWS V14.01,2013-01-31 19:54:00,
2013-01-31 13:56:00,44.2,26.2,30.12,NNW,342,10.3,11.3,49,0.00,,OVC010,0.00,VWS V14.01,2013-01-31 19:56:00,
2013-01-31 13:58:00,44.1,26.1,30.12,NNW,328,12.5,16.6,49,0.00,,OVC010,0.00,VWS V14.01,2013-01-31 19:58:00,
2013-01-31 13:59:00,44.1,26.7,30.12,NW,307,10.8,16.6,50,0.00,,CLR,0.00,VWS V14.01,2013-01-31 19:59:00,
2013-01-31 14:00:00,43.9,26.5,30.12,ENE,71,2.8,16.6,50,0.00,,OVC010,0.00,VWS V14.01,2013-01-31 20:00:00,
2013-01-31 14:02:00,43.7,26.4,30.12,WNW,282,10.8,11.9,50,0.00,,OVC010,0.00,VWS V14.01,2013-01-31 20:02:00,
2013-01-31 14:04:00,43.7,26.4,30.12,North,8,7.2,13.7,50,0.00,,CLR,0.00,VWS V14.01,2013-01-31 20:04:00,
2013-01-31 14:06:00,43.5,26.2,30.12,WNW,300,3.3,13.1,50,0.00,,OVC010,0.00,VWS V14.01,2013-01-31 20:06:00,
2013-01-31 14:08:00,43.5,26.2,30.12,North,353,5.0,13.1,50,0.00,,OVC010,0.00,VWS V14.01,2013-01-31 20:08:00,
2013-01-31 14:09:00,43.3,26.0,30.12,NW,316,10.8,11.3,50,0.00,,CLR,0.00,VWS V14.01,2013-01-31 20:09:00,
2013-01-31 14:10:00,43.3,26.0,30.12,North,353,5.0,11.3,50,0.00,,OVC010,0.00,VWS V14.01,2013-01-31 20:10:00,
2013-01-31 14:12:00,43.3,26.0,30.12,NW,319,5.0,7.0,50,0.00,,OVC010,0.00,VWS V14.01,2013-01-31 20:12:00,
2013-01-31 14:14:00,43.3,26.0,30.12,NNW,335,6.7,10.5,50,0.00,,CLR,0.00,VWS V14.01,2013-01-31 20:14:00,
2013-01-31 14:16:00,43.3,26.0,30.12,NW,308,5.0,10.8,50,0.00,,OVC010,0.00,VWS V14.01,2013-01-31 20:16:00,
2013-01-31 14:18:00,43.3,26.0,30.12,North,6,4.4,11.3,50,0.00,,OVC010,0.00,VWS V14.01,2013-01-31 20:18:00,
2013-01-31 14:19:00,43.3,26.0,30.12,NW,320,6.7,9.9,50,0.00,,FEW110,0.00,VWS V14.01,2013-01-31 20:19:00,
2013-01-31 14:20:00,43.3,26.0,30.12,NW,308,10.8,11.3,50,0.00,,OVC010,0.00,VWS V14.01,2013-01-31 20:20:00,
2013-01-31 14:22:00,43.2,25.9,30.12,West,267,6.7,11.3,50,0.00,,OVC010,0.00,VWS V14.01,2013-01-31 20:22:00,
2013-01-31 14:24:00,43.0,25.7,30.12,NW,321,6.7,13.7,50,0.00,,FEW110,0.00,VWS V14.01,2013-01-31 20:24:00,
2013-01-31 14:26:00,43.0,25.7,30.12,ENE,64,7.2,10.5,50,0.00,,OVC010,0.00,VWS V14.01,2013-01-31 20:26:00,
2013-01-31 14:28:00,43.0,25.7,30.12,WNW,294,10.0,12.5,50,0.00,,OVC010,0.00,VWS V14.01,2013-01-31 20:28:00,
2013-01-31 14:29:00,43.0,25.7,30.12,WNW,286,7.2,12.5,50,0.00,,FEW110,0.00,VWS V14.01,2013-01-31 20:29:00,
2013-01-31 14:30:00,43.0,25.7,30.12,WNW,303,6.7,10.5,50,0.00,,OVC010,0.00,VWS V14.01,2013-01-31 20:30:00,
2013-01-31 14:32:00,43.2,25.9,30.12,North,357,7.8,11.3,50,0.00,,OVC010,0.00,VWS V14.01,2013-01-31 20:32:00,
2013-01-31 14:34:00,43.3,26.0,30.12,NW,316,10.3,14.8,50,0.00,,FEW110,0.00,VWS V14.01,2013-01-31 20:34:00,
2013-01-31 14:36:00,43.3,26.0,30.12,NW,325,3.3,14.8,50,0.00,,OVC010,0.00,VWS V14.01,2013-01-31 20:36:00,
2013-01-31 14:38:00,43.3,26.0,30.12,NW,319,9.4,14.2,50,0.00,,OVC010,0.00,VWS V14.01,2013-01-31 20:38:00,
2013-01-31 14:39:00,43.3,26.0,30.12,NNW,331,7.2,10.5,50,0.00,,FEW110,0.00,VWS V14.01,2013-01-31 20:39:00,
2013-01-31 14:40:00,43.2,25.9,30.12,North,6,8.3,9.9,50,0.00,,OVC010,0.00,VWS V14.01,2013-01-31 20:40:00,
2013-01-31 14:42:00,43.2,25.9,30.12,NNE,14,7.8,10.8,50,0.00,,OVC010,0.00,VWS V14.01,2013-01-31 20:42:00,
2013-01-31 14:44:00,43.0,25.7,30.12,North,350,7.8,13.7,50,0.00,,FEW110,0.00,VWS V14.01,2013-01-31 20:44:00,
2013-01-31 14:46:00,42.8,25.5,30.12,NW,320,7.8,10.5,50,0.00,,OVC010,0.00,VWS V14.01,2013-01-31 20:46:00,
2013-01-31 14:48:00,42.4,25.8,30.12,NNW,327,4.4,10.8,51,0.00,,OVC010,0.00,VWS V14.01,2013-01-31 20:48:00,
2013-01-31 14:49:00,42.4,25.8,30.12,NNW,340,7.2,11.3,51,0.00,,FEW110,0.00,VWS V14.01,2013-01-31 20:49:00,
2013-01-31 14:50:00,42.4,25.8,30.12,NNW,330,10.0,13.1,51,0.00,,OVC010,0.00,VWS V14.01,2013-01-31 20:50:00,
2013-01-31 14:52:00,42.4,25.8,30.12,NNW,343,6.7,13.7,51,0.00,,OVC010,0.00,VWS V14.01,2013-01-31 20:52:00,
2013-01-31 14:54:00,42.4,25.8,30.15,NW,308,13.6,15.4,51,0.00,,FEW110,0.00,VWS V14.01,2013-01-31 20:54:00,
2013-01-31 14:56:00,42.6,26.0,30.15,NW,319,10.0,16.6,51,0.00,,OVC010,0.00,VWS V14.01,2013-01-31 20:56:00,
2013-01-31 14:58:00,42.6,26.0,30.15,North,4,10.0,13.7,51,0.00,,OVC010,0.00,VWS V14.01,2013-01-31 20:58:00,
2013-01-31 14:59:00,42.6,26.0,30.15,SW,226,6.7,13.1,51,0.00,,FEW110,0.00,VWS V14.01,2013-01-31 20:59:00,
2013-01-31 15:00:00,42.6,26.0,30.15,NW,324,10.0,10.5,51,0.00,,OVC010,0.00,VWS V14.01,2013-01-31 21:00:00,
2013-01-31 15:02:00,42.4,25.8,30.15,NW,322,9.4,11.3,51,0.00,,OVC010,0.00,VWS V14.01,2013-01-31 21:02:00,
2013-01-31 15:04:00,42.1,24.9,30.15,North,353,6.7,13.7,50,0.00,,FEW110,0.00,VWS V14.01,2013-01-31 21:04:00,
2013-01-31 15:06:00,41.7,24.5,30.15,NW,310,7.8,12.5,50,0.00,,OVC010,0.00,VWS V14.01,2013-01-31 21:06:00,
2013-01-31 15:08:00,41.5,24.4,30.15,NE,50,9.4,16.0,50,0.00,,OVC010,0.00,VWS V14.01,2013-01-31 21:08:00,
2013-01-31 15:09:00,41.4,24.2,30.15,NNE,12,6.1,16.0,50,0.00,,FEW110,0.00,VWS V14.01,2013-01-31 21:09:00,
2013-01-31 15:10:00,41.2,24.0,30.15,NW,305,12.5,14.2,50,0.00,,OVC010,0.00,VWS V14.01,2013-01-31 21:10:00,
2013-01-31 15:12:00,41.0,23.9,30.15,North,353,13.0,13.7,50,0.00,,OVC010,0.00,VWS V14.01,2013-01-31 21:12:00,
2013-01-31 15:14:00,40.6,24.2,30.15,NW,306,4.4,10.8,51,0.00,,FEW110,0.00,VWS V14.01,2013-01-31 21:14:00,
2013-01-31 15:16:00,40.6,24.2,30.15,NNE,16,13.0,13.7,51,0.00,,OVC010,0.00,VWS V14.01,2013-01-31 21:16:00,
2013-01-31 15:18:00,40.3,23.8,30.15,NNE,24,9.4,17.2,51,0.00,,OVC010,0.00,VWS V14.01,2013-01-31 21:18:00,
2013-01-31 15:19:00,40.3,23.8,30.15,NNW,338,7.8,11.3,51,0.00,,SCT110,0.00,VWS V14.01,2013-01-31 21:19:00,
2013-01-31 15:20:00,40.1,23.7,30.15,NNW,338,10.8,11.3,51,0.00,,OVC010,0.00,VWS V14.01,2013-01-31 21:20:00,
2013-01-31 15:22:00,39.9,23.5,30.15,NNW,348,10.0,16.0,51,0.00,,OVC010,0.00,VWS V14.01,2013-01-31 21:22:00,
2013-01-31 15:24:00,39.7,23.3,30.15,North,353,7.2,10.5,51,0.00,,SCT110,0.00,VWS V14.01,2013-01-31 21:24:00,
2013-01-31 15:26:00,39.6,23.2,30.15,West,274,4.4,10.5,51,0.00,,OVC010,0.00,VWS V14.01,2013-01-31 21:26:00,
2013-01-31 15:28:00,39.4,23.6,30.15,NNW,333,5.0,13.1,53,0.00,,OVC010,0.00,VWS V14.01,2013-01-31 21:28:00,
2013-01-31 15:29:00,39.2,23.4,30.15,North,0,4.4,13.1,53,0.00,,SCT110,0.00,VWS V14.01,2013-01-31 21:29:00,
2013-01-31 15:30:00,39.2,23.4,30.15,North,8,3.3,9.9,53,0.00,,OVC010,0.00,VWS V14.01,2013-01-31 21:30:00,
2013-01-31 15:32:00,39.0,23.3,30.15,West,268,6.7,13.1,53,0.00,,OVC010,0.00,VWS V14.01,2013-01-31 21:32:00,
2013-01-31 15:34:00,38.8,23.7,30.15,North,357,10.8,11.3,54,0.00,,SCT110,0.00,VWS V14.01,2013-01-31 21:34:00,
2013-01-31 15:36:00,38.8,23.7,30.15,NNE,17,3.9,11.3,54,0.00,,OVC010,0.00,VWS V14.01,2013-01-31 21:36:00,
2013-01-31 15:38:00,38.7,23.5,30.15,NNE,21,10.8,11.3,54,0.00,,OVC010,0.00,VWS V14.01,2013-01-31 21:38:00,
2013-01-31 15:39:00,38.5,23.4,30.18,NNW,330,5.0,11.3,54,0.00,,SCT110,0.00,VWS V14.01,2013-01-31 21:39:00,
2013-01-31 15:40:00,38.5,23.4,30.18,North,353,5.0,11.3,54,0.00,,OVC010,0.00,VWS V14.01,2013-01-31 21:40:00,
2013-01-31 15:42:00,38.3,23.2,30.18,North,10,15.3,16.0,54,0.00,,OVC010,0.00,VWS V14.01,2013-01-31 21:42:00,
2013-01-31 15:44:00,38.1,23.0,30.18,NNW,345,4.4,13.7,54,0.00,,SCT110,0.00,VWS V14.01,2013-01-31 21:44:00,
2013-01-31 15:46:00,37.9,22.8,30.18,NNE,17,10.3,16.6,54,0.00,,OVC010,0.00,VWS V14.01,2013-01-31 21:46:00,
2013-01-31 15:48:00,37.8,22.7,30.18,NNE,22,7.2,13.7,54,0.00,,OVC010,0.00,VWS V14.01,2013-01-31 21:48:00,
2013-01-31 15:49:00,37.6,22.5,30.18,West,274,5.0,8.1,54,0.00,,SCT110,0.00,VWS V14.01,2013-01-31 21:49:00,
2013-01-31 15:50:00,37.6,22.5,30.18,SW,231,2.8,8.1,54,0.00,,OVC010,0.00,VWS V14.01,2013-01-31 21:50:00,
2013-01-31 15:52:00,37.4,22.3,30.18,North,0,7.2,7.6,54,0.00,,OVC010,0.00,VWS V14.01,2013-01-31 21:52:00,
2013-01-31 15:54:00,37.4,22.9,30.21,NNW,331,6.7,7.6,55,0.00,,OVC010,0.00,VWS V14.01,2013-01-31 21:54:00,
2013-01-31 15:55:00,37.2,22.7,30.21,NNW,341,7.8,11.3,55,0.00,,SCT110,0.00,VWS V14.01,2013-01-31 21:55:00,
2013-01-31 15:56:00,37.2,22.7,30.21,North,8,7.8,11.3,55,0.00,,OVC010,0.00,VWS V14.01,2013-01-31 21:56:00,
2013-01-31 15:58:00,37.2,22.7,30.21,NNW,346,9.4,13.1,55,0.00,,OVC010,0.00,VWS V14.01,2013-01-31 21:58:00,
2013-01-31 16:00:00,37.0,22.6,30.21,North,353,7.8,10.8,55,0.00,,SCT110,0.00,VWS V14.01,2013-01-31 22:00:00,
2013-01-31 16:02:00,37.0,22.6,30.21,North,357,4.4,8.1,55,0.00,,OVC010,0.00,VWS V14.01,2013-01-31 22:02:00,
2013-01-31 16:04:00,37.0,23.1,30.21,NW,319,7.2,11.3,57,0.00,,OVC010,0.00,VWS V14.01,2013-01-31 22:04:00,
2013-01-31 16:05:00,37.0,23.1,30.21,NNE,21,9.4,11.3,57,0.00,,BKN110,0.00,VWS V14.01,2013-01-31 22:05:00,
2013-01-31 16:06:00,36.9,23.0,30.21,NW,312,5.0,10.8,57,0.00,,OVC010,0.00,VWS V14.01,2013-01-31 22:06:00,
2013-01-31 16:08:00,36.9,23.0,30.21,North,353,7.2,11.3,57,0.00,,OVC010,0.00,VWS V14.01,2013-01-31 22:08:00,
2013-01-31 16:10:00,36.9,23.0,30.21,NW,305,6.1,10.5,57,0.00,,BKN110,0.00,VWS V14.01,2013-01-31 22:10:00,
2013-01-31 16:12:00,36.9,23.0,30.21,North,0,12.5,13.1,57,0.00,,OVC010,0.00,VWS V14.01,2013-01-31 22:12:00,
2013-01-31 16:14:00,36.7,22.8,30.21,North,353,9.4,13.1,57,0.00,,OVC010,0.00,VWS V14.01,2013-01-31 22:14:00,
2013-01-31 16:15:00,36.7,22.8,30.21,NNW,341,6.7,11.3,57,0.00,,BKN110,0.00,VWS V14.01,2013-01-31 22:15:00,
2013-01-31 16:16:00,36.5,22.6,30.21,NNW,341,10.0,11.3,57,0.00,,OVC010,0.00,VWS V14.01,2013-01-31 22:16:00,
2013-01-31 16:18:00,36.3,22.5,30.21,North,353,3.3,8.1,57,0.00,,OVC010,0.00,VWS V14.01,2013-01-31 22:18:00,
2013-01-31 16:20:00,36.1,22.3,30.21,NNW,331,3.9,11.3,57,0.00,,BKN110,0.00,VWS V14.01,2013-01-31 22:20:00,
2013-01-31 16:22:00,36.0,22.1,30.21,NNE,27,6.1,9.9,57,0.00,,OVC010,0.00,VWS V14.01,2013-01-31 22:22:00,
2013-01-31 16:24:00,35.8,22.0,30.21,North,5,4.4,10.5,57,0.00,,OVC010,0.00,VWS V14.01,2013-01-31 22:24:00,
2013-01-31 16:25:00,35.8,22.0,30.21,NNE,21,9.4,9.9,57,0.00,,OVC049,0.00,VWS V14.01,2013-01-31 22:25:00,
2013-01-31 16:26:00,35.8,22.5,30.21,NW,305,4.4,13.7,58,0.00,,OVC010,0.00,VWS V14.01,2013-01-31 22:26:00,
2013-01-31 16:28:00,35.6,22.3,30.21,NE,49,7.8,14.2,58,0.00,,OVC010,0.00,VWS V14.01,2013-01-31 22:28:00,
2013-01-31 16:30:00,35.4,22.7,30.21,NNE,22,7.2,17.2,59,0.00,,OVC049,0.00,VWS V14.01,2013-01-31 22:30:00,
2013-01-31 16:32:00,35.2,22.5,30.21,NNE,13,10.0,10.5,59,0.00,,OVC010,0.00,VWS V14.01,2013-01-31 22:32:00,
2013-01-31 16:34:00,35.1,22.4,30.21,North,357,7.8,17.2,59,0.00,,OVC010,0.00,VWS V14.01,2013-01-31 22:34:00,
2013-01-31 16:35:00,34.9,22.7,30.21,North,353,13.0,17.2,61,0.00,,OVC049,0.00,VWS V14.01,2013-01-31 22:35:00,
2013-01-31 16:36:00,34.9,22.7,30.21,NE,45,4.4,16.0,61,0.00,,OVC010,0.00,VWS V14.01,2013-01-31 22:36:00,
2013-01-31 16:38:00,34.5,22.4,30.21,NW,313,9.4,15.4,61,0.00,,OVC010,0.00,VWS V14.01,2013-01-31 22:38:00,
2013-01-31 16:40:00,34.3,22.7,30.24,North,357,10.0,13.7,62,0.00,,OVC040,0.00,VWS V14.01,2013-01-31 22:40:00,
2013-01-31 16:42:00,34.0,22.9,30.24,NE,35,6.7,11.9,63,0.00,,OVC010,0.00,VWS V14.01,2013-01-31 22:42:00,
2013-01-31 16:44:00,33.8,22.7,30.24,North,353,7.8,14.2,63,0.00,,OVC010,0.00,VWS V14.01,2013-01-31 22:44:00,
2013-01-31 16:45:00,33.6,22.5,30.24,North,10,10.8,14.2,63,0.00,,OVC040,0.00,VWS V14.01,2013-01-31 22:45:00,
2013-01-31 16:46:00,33.6,22.5,30.24,North,4,7.2,13.1,63,0.00,,OVC010,0.00,VWS V14.01,2013-01-31 22:46:00,
2013-01-31 16:48:00,33.4,22.4,30.24,North,357,10.3,10.8,63,0.00,,OVC010,0.00,VWS V14.01,2013-01-31 22:48:00,
2013-01-31 16:50:00,33.3,22.2,30.24,NW,321,5.0,10.8,63,0.00,,OVC040,0.00,VWS V14.01,2013-01-31 22:50:00,
2013-01-31 16:52:00,33.1,22.5,30.24,NNE,23,3.9,8.1,65,0.00,,OVC010,0.00,VWS V14.01,2013-01-31 22:52:00,
2013-01-31 16:54:00,32.9,22.3,30.24,NNW,344,12.5,13.1,65,0.00,,OVC010,0.00,VWS V14.01,2013-01-31 22:54:00,
2013-01-31 16:55:00,32.7,22.1,30.24,NNW,338,10.8,13.1,65,0.00,,OVC040,0.00,VWS V14.01,2013-01-31 22:55:00,
2013-01-31 16:56:00,32.7,22.1,30.24,NNW,327,9.4,13.1,65,0.00,,OVC010,0.00,VWS V14.01,2013-01-31 22:56:00,
2013-01-31 16:58:00,32.5,22.0,30.24,NNW,342,6.7,13.1,65,0.00,,OVC010,0.00,VWS V14.01,2013-01-31 22:58:00,
2013-01-31 17:00:00,32.2,21.6,30.24,North,357,13.0,25.6,65,0.00,,OVC032,0.00,VWS V14.01,2013-01-31 23:00:00,
2013-01-31 17:02:00,32.0,21.5,30.24,North,5,7.8,22.1,65,0.00,,OVC010,0.00,VWS V14.01,2013-01-31 23:02:00,
2013-01-31 17:04:00,31.8,20.8,30.24,North,0,7.8,22.1,63,0.00,,OVC010,0.00,VWS V14.01,2013-01-31 23:04:00,
2013-01-31 17:05:00,31.5,20.5,30.24,NW,316,7.2,12.5,63,0.00,,OVC032,0.00,VWS V14.01,2013-01-31 23:05:00,
2013-01-31 17:06:00,31.3,20.8,30.24,WNW,301,9.4,9.9,65,0.00,,OVC010,0.00,VWS V14.01,2013-01-31 23:06:00,
2013-01-31 17:08:00,30.9,20.9,30.24,NNW,331,5.0,14.2,66,0.00,,OVC010,0.00,VWS V14.01,2013-01-31 23:08:00,
2013-01-31 17:10:00,30.4,20.9,30.24,NNE,15,7.8,8.1,67,0.00,,OVC032,0.00,VWS V14.01,2013-01-31 23:10:00,
2013-01-31 17:12:00,30.2,20.7,30.24,NW,304,10.8,11.3,67,0.00,,OVC010,0.00,VWS V14.01,2013-01-31 23:12:00,
2013-01-31 17:14:00,29.8,20.8,30.24,NE,39,7.2,11.3,69,0.00,,OVC010,0.00,VWS V14.01,2013-01-31 23:14:00,
2013-01-31 17:15:00,29.8,20.8,30.24,NW,315,7.8,10.8,69,0.00,,OVC032,0.00,VWS V14.01,2013-01-31 23:15:00,
2013-01-31 17:16:00,29.7,20.6,30.24,NNW,344,3.9,10.8,69,0.00,,OVC010,0.00,VWS V14.01,2013-01-31 23:16:00,
2013-01-31 17:18:00,29.5,20.5,30.24,NNW,337,3.9,8.1,69,0.00,,OVC010,0.00,VWS V14.01,2013-01-31 23:18:00,
2013-01-31 17:20:00,29.3,20.7,30.24,NW,314,7.2,9.3,70,0.00,,OVC032,0.00,VWS V14.01,2013-01-31 23:20:00,
2013-01-31 17:22:00,29.3,21.2,30.24,NNW,332,3.3,9.3,71,0.00,,OVC010,0.00,VWS V14.01,2013-01-31 23:22:00,
2013-01-31 17:24:00,29.1,21.0,30.24,NW,315,2.8,8.1,71,0.00,,OVC010,0.00,VWS V14.01,2013-01-31 23:24:00,
2013-01-31 17:25:00,29.1,21.0,30.24,North,357,5.0,7.6,71,0.00,,OVC030,0.00,VWS V14.01,2013-01-31 23:25:00,
2013-01-31 17:26:00,29.1,21.0,30.24,NW,319,4.4,7.0,71,0.00,,OVC010,0.00,VWS V14.01,2013-01-31 23:26:00,
2013-01-31 17:28:00,29.1,21.0,30.24,NW,325,6.1,7.0,71,0.00,,OVC010,0.00,VWS V14.01,2013-01-31 23:28:00,
2013-01-31 17:30:00,28.9,21.3,30.24,NNW,341,4.4,7.6,73,0.00,,OVC030,0.00,VWS V14.01,2013-01-31 23:30:00,
2013-01-31 17:32:00,28.9,21.3,30.24,NNW,346,3.9,8.1,73,0.00,,OVC010,0.00,VWS V14.01,2013-01-31 23:32:00,
2013-01-31 17:34:00,28.8,21.1,30.24,NNW,332,3.9,4.1,73,0.00,,OVC010,0.00,VWS V14.01,2013-01-31 23:34:00,
2013-01-31 17:35:00,28.8,21.1,30.24,NW,321,3.3,7.6,73,0.00,,OVC030,0.00,VWS V14.01,2013-01-31 23:35:00,
2013-01-31 17:36:00,28.8,21.1,30.24,NW,316,3.9,7.6,73,0.00,,OVC010,0.00,VWS V14.01,2013-01-31 23:36:00,
2013-01-31 17:38:00,28.8,21.5,30.24,North,349,5.0,11.3,74,0.00,,OVC010,0.00,VWS V14.01,2013-01-31 23:38:00,
2013-01-31 17:40:00,28.6,21.3,30.27,North,349,3.9,8.1,74,0.00,,OVC110,0.00,VWS V14.01,2013-01-31 23:40:00,
2013-01-31 17:42:00,28.6,21.3,30.27,NNE,16,4.4,8.1,74,0.00,,OVC010,0.00,VWS V14.01,2013-01-31 23:42:00,
2013-01-31 17:44:00,28.6,21.3,30.27,NW,322,2.8,9.9,74,0.00,,OVC010,0.00,VWS V14.01,2013-01-31 23:44:00,
2013-01-31 17:45:00,28.4,21.6,30.27,NW,314,10.8,11.3,75,0.00,,OVC110,0.00,VWS V14.01,2013-01-31 23:45:00,
2013-01-31 17:46:00,28.4,21.6,30.27,NW,326,8.3,11.3,75,0.00,,OVC010,0.00,VWS V14.01,2013-01-31 23:46:00,
2013-01-31 17:48:00,28.4,21.6,30.27,NW,307,0.0,10.8,75,0.00,,OVC010,0.00,VWS V14.01,2013-01-31 23:48:00,
2013-01-31 17:50:00,28.2,21.0,30.27,North,357,9.4,10.5,74,0.00,,OVC010,0.00,VWS V14.01,2013-01-31 23:50:00,
2013-01-31 17:51:00,28.2,21.0,30.27,NNE,16,4.4,10.5,74,0.00,,OVC110,0.00,VWS V14.01,2013-01-31 23:51:00,
2013-01-31 17:52:00,28.2,21.0,30.27,North,357,5.5,9.9,74,0.00,,OVC010,0.00,VWS V14.01,2013-01-31 23:52:00,
2013-01-31 17:54:00,28.0,20.8,30.27,NNW,332,4.4,8.1,74,0.00,,OVC010,0.00,VWS V14.01,2013-01-31 23:54:00,
2013-01-31 17:56:00,28.0,20.8,30.27,NNW,330,5.0,7.6,74,0.00,,OVC110,0.00,VWS V14.01,2013-01-31 23:56:00,
2013-01-31 17:58:00,28.0,20.8,30.27,West,277,4.4,5.2,74,0.00,,OVC010,0.00,VWS V14.01,2013-01-31 23:58:00,
2013-01-31 18:00:00,28.0,20.8,30.27,North,0,3.9,5.2,74,0.00,,OVC010,0.00,VWS V14.01,2013-02-01 00:00:00,
2013-01-31 18:01:00,28.0,20.8,30.27,North,8,5.0,6.4,74,0.00,,OVC110,0.00,VWS V14.01,2013-02-01 00:01:00,
2013-01-31 18:02:00,28.0,20.8,30.27,NW,310,4.4,7.0,74,0.00,,OVC010,0.00,VWS V14.01,2013-02-01 00:02:00,
2013-01-31 18:04:00,28.0,20.8,30.27,North,1,6.7,7.0,74,0.00,,OVC010,0.00,VWS V14.01,2013-02-01 00:04:00,
2013-01-31 18:06:00,28.0,20.4,30.27,NW,316,7.8,8.1,73,0.00,,OVC110,0.00,VWS V14.01,2013-02-01 00:06:00,
2013-01-31 18:08:00,28.0,20.4,30.27,WNW,303,0.0,8.1,73,0.00,,OVC010,0.00,VWS V14.01,2013-02-01 00:08:00,
2013-01-31 18:10:00,28.0,20.4,30.27,NW,305,3.9,7.0,73,0.00,,OVC010,0.00,VWS V14.01,2013-02-01 00:10:00,
2013-01-31 18:11:00,28.0,20.4,30.27,WNW,301,7.2,7.6,73,0.00,,OVC110,0.00,VWS V14.01,2013-02-01 00:11:00,
2013-01-31 18:12:00,28.0,20.4,30.27,NW,323,4.4,8.1,73,0.00,,OVC010,0.00,VWS V14.01,2013-02-01 00:12:00,
2013-01-31 18:14:00,28.0,20.4,30.27,NW,323,7.8,9.9,73,0.00,,OVC010,0.00,VWS V14.01,2013-02-01 00:14:00,
2013-01-31 18:16:00,27.9,20.2,30.27,North,349,0.0,8.1,73,0.00,,OVC110,0.00,VWS V14.01,2013-02-01 00:16:00,
2013-01-31 18:18:00,27.9,20.6,30.27,NW,317,0.0,5.2,74,0.00,,OVC010,0.00,VWS V14.01,2013-02-01 00:18:00,
2013-01-31 18:20:00,27.9,20.6,30.27,NW,317,7.8,8.1,74,0.00,,OVC010,0.00,VWS V14.01,2013-02-01 00:20:00,
2013-01-31 18:21:00,27.9,20.6,30.27,NNW,332,7.2,9.9,74,0.00,,OVC100,0.00,VWS V14.01,2013-02-01 00:21:00,
2013-01-31 18:22:00,27.9,20.6,30.27,North,349,5.0,9.9,74,0.00,,OVC010,0.00,VWS V14.01,2013-02-01 00:22:00,
2013-01-31 18:24:00,27.9,20.6,30.27,North,353,3.9,7.6,74,0.00,,OVC010,0.00,VWS V14.01,2013-02-01 00:24:00,
2013-01-31 18:26:00,27.9,20.6,30.27,North,6,6.7,13.7,74,0.00,,OVC100,0.00,VWS V14.01,2013-02-01 00:26:00,
2013-01-31 18:28:00,27.7,20.5,30.27,North,11,7.2,8.1,74,0.00,,OVC010,0.00,VWS V14.01,2013-02-01 00:28:00,
2013-01-31 18:30:00,27.5,20.3,30.27,North,1,9.4,10.8,74,0.00,,OVC010,0.00,VWS V14.01,2013-02-01 00:30:00,
2013-01-31 18:31:00,27.5,20.3,30.27,NNE,15,10.8,11.3,74,0.00,,OVC100,0.00,VWS V14.01,2013-02-01 00:31:00,
2013-01-31 18:32:00,27.5,20.3,30.27,North,5,7.8,11.3,74,0.00,,OVC010,0.00,VWS V14.01,2013-02-01 00:32:00,
2013-01-31 18:34:00,27.3,20.1,30.27,North,7,6.1,10.5,74,0.00,,OVC010,0.00,VWS V14.01,2013-02-01 00:34:00,
2013-01-31 18:36:00,27.3,20.1,30.27,North,3,6.1,7.6,74,0.00,,OVC100,0.00,VWS V14.01,2013-02-01 00:36:00,
2013-01-31 18:38:00,27.1,19.9,30.27,NNE,22,7.2,10.8,74,0.00,,OVC010,0.00,VWS V14.01,2013-02-01 00:38:00,
2013-01-31 18:40:00,27.1,19.9,30.30,North,357,6.7,13.1,74,0.00,,OVC010,0.00,VWS V14.01,2013-02-01 00:40:00,
2013-01-31 18:41:00,27.1,19.9,30.30,NNW,327,7.8,13.1,74,0.00,,BKN110,0.00,VWS V14.01,2013-02-01 00:41:00,
2013-01-31 18:42:00,27.1,19.9,30.30,NW,308,7.8,8.1,74,0.00,,OVC010,0.00,VWS V14.01,2013-02-01 00:42:00,
2013-01-31 18:44:00,27.0,19.8,30.30,NW,322,4.4,10.8,74,0.00,,OVC010,0.00,VWS V14.01,2013-02-01 00:44:00,
2013-01-31 18:46:00,27.0,19.8,30.30,NNW,345,5.0,6.4,74,0.00,,BKN110,0.00,VWS V14.01,2013-02-01 00:46:00,
2013-01-31 18:48:00,27.0,19.8,30.30,NW,320,0.0,6.4,74,0.00,,OVC010,0.00,VWS V14.01,2013-02-01 00:48:00,
2013-01-31 18:50:00,27.0,19.8,30.30,WNW,290,4.4,6.4,74,0.00,,OVC010,0.00,VWS V14.01,2013-02-01 00:50:00,
2013-01-31 18:51:00,27.0,19.8,30.30,NW,319,3.3,7.0,74,0.00,,BKN110,0.00,VWS V14.01,2013-02-01 00:51:00,
2013-01-31 18:52:00,27.0,19.8,30.30,NNW,336,6.7,8.7,74,0.00,,OVC010,0.00,VWS V14.01,2013-02-01 00:52:00,
2013-01-31 18:54:00,26.8,19.6,30.30,NNE,32,10.0,10.5,74,0.00,,OVC010,0.00,VWS V14.01,2013-02-01 00:54:00,
2013-01-31 18:56:00,26.8,19.6,30.30,NNW,337,7.8,8.1,74,0.00,,BKN110,0.00,VWS V14.01,2013-02-01 00:56:00,
2013-01-31 18:58:00,26.8,19.6,30.30,NNE,20,7.2,8.1,74,0.00,,OVC010,0.00,VWS V14.01,2013-02-01 00:58:00,
2013-01-31 19:00:00,26.8,20.0,30.30,North,357,3.3,10.5,75,0.00,,OVC010,0.00,VWS V14.01,2013-02-01 01:00:00,
2013-01-31 19:01:00,26.8,20.0,30.30,NW,325,6.7,7.6,75,0.00,,BKN110,0.00,VWS V14.01,2013-02-01 01:01:00,
2013-01-31 19:02:00,26.8,20.0,30.30,NNE,13,10.8,11.3,75,0.00,,OVC010,0.00,VWS V14.01,2013-02-01 01:02:00,
2013-01-31 19:04:00,26.6,19.8,30.30,North,357,4.4,11.3,75,0.00,,OVC010,0.00,VWS V14.01,2013-02-01 01:04:00,
2013-01-31 19:06:00,26.6,19.8,30.30,North,353,4.4,11.3,75,0.00,,BKN110,0.00,VWS V14.01,2013-02-01 01:06:00,
2013-01-31 19:08:00,26.6,20.2,30.30,NNW,329,10.3,10.8,77,0.00,,OVC010,0.00,VWS V14.01,2013-02-01 01:08:00,
2013-01-31 19:10:00,26.6,20.2,30.30,North,353,6.7,9.3,77,0.00,,OVC010,0.00,VWS V14.01,2013-02-01 01:10:00,
2013-01-31 19:11:00,26.6,20.2,30.30,NNE,31,7.2,9.3,77,0.00,,BKN110,0.00,VWS V14.01,2013-02-01 01:11:00,
2013-01-31 19:12:00,26.6,20.2,30.30,North,9,7.2,7.6,77,0.00,,OVC010,0.00,VWS V14.01,2013-02-01 01:12:00,
2013-01-31 19:14:00,26.4,20.1,30.30,NNE,19,3.9,7.6,77,0.00,,OVC010,0.00,VWS V14.01,2013-02-01 01:14:00,
2013-01-31 19:16:00,26.4,20.1,30.30,North,357,5.0,11.3,77,0.00,,BKN110,0.00,VWS V14.01,2013-02-01 01:16:00,
2013-01-31 19:18:00,26.4,20.1,30.30,NNE,12,6.7,7.6,77,0.00,,OVC010,0.00,VWS V14.01,2013-02-01 01:18:00,
2013-01-31 19:21:00,26.4,20.1,30.30,North,11,6.7,8.1,77,0.00,,BKN110,0.00,VWS V14.01,2013-02-01 01:21:00,
2013-01-31 19:22:00,26.4,20.1,30.30,North,6,3.9,8.1,77,0.00,,OVC010,0.00,VWS V14.01,2013-02-01 01:22:00,
2013-01-31 19:24:00,26.4,20.1,30.33,NNW,341,7.2,8.1,77,0.00,,OVC010,0.00,VWS V14.01,2013-02-01 01:24:00,
2013-01-31 19:26:00,26.4,20.1,30.33,North,353,7.8,8.1,77,0.00,,BKN110,0.00,VWS V14.01,2013-02-01 01:26:00,
2013-01-31 19:28:00,26.2,19.9,30.33,WNW,282,5.0,8.1,77,0.00,,OVC010,0.00,VWS V14.01,2013-02-01 01:28:00,
2013-01-31 19:30:00,26.1,19.7,30.33,WNW,290,5.5,10.5,77,0.00,,OVC010,0.00,VWS V14.01,2013-02-01 01:30:00,
2013-01-31 19:31:00,26.1,19.3,30.33,NNW,327,5.0,10.5,75,0.00,,BKN110,0.00,VWS V14.01,2013-02-01 01:31:00,
2013-01-31 19:32:00,26.1,19.3,30.33,NW,319,6.7,10.5,75,0.00,,OVC010,0.00,VWS V14.01,2013-02-01 01:32:00,
2013-01-31 19:34:00,25.9,19.1,30.33,WNW,298,4.4,7.0,75,0.00,,OVC010,0.00,VWS V14.01,2013-02-01 01:34:00,
2013-01-31 19:36:00,25.7,18.5,30.33,NW,313,2.8,8.1,74,0.00,,BKN110,0.00,VWS V14.01,2013-02-01 01:36:00,
2013-01-31 19:38:00,25.7,18.5,30.33,WNW,303,7.8,8.1,74,0.00,,OVC010,0.00,VWS V14.01,2013-02-01 01:38:00,
2013-01-31 19:40:00,25.5,18.0,30.33,NNW,343,5.0,13.1,73,0.00,,OVC010,0.00,VWS V14.01,2013-02-01 01:40:00,
2013-01-31 19:41:00,25.3,17.8,30.33,NW,318,3.3,9.9,73,0.00,,BKN019,0.00,VWS V14.01,2013-02-01 01:41:00,
2013-01-31 19:42:00,25.3,17.4,30.33,NNW,336,6.7,9.9,71,0.00,,OVC010,0.00,VWS V14.01,2013-02-01 01:42:00,
2013-01-31 19:44:00,25.3,17.4,30.33,West,280,4.4,7.6,71,0.00,,OVC010,0.00,VWS V14.01,2013-02-01 01:44:00,
2013-01-31 19:46:00,25.2,16.8,30.33,NW,310,5.0,8.1,70,0.00,,BKN019,0.00,VWS V14.01,2013-02-01 01:46:00,
2013-01-31 19:48:00,25.0,16.6,30.33,NW,316,7.8,9.9,70,0.00,,OVC010,0.00,VWS V14.01,2013-02-01 01:48:00,
2013-01-31 19:50:00,24.8,16.4,30.33,NW,310,6.1,10.5,70,0.00,,OVC010,0.00,VWS V14.01,2013-02-01 01:50:00,
2013-01-31 19:51:00,24.8,16.4,30.33,NW,309,4.4,8.1,70,0.00,,BKN019,0.00,VWS V14.01,2013-02-01 01:51:00,
2013-01-31 19:52:00,24.8,16.4,30.33,WNW,302,6.1,8.1,70,0.00,,OVC010,0.00,VWS V14.01,2013-02-01 01:52:00,
2013-01-31 19:54:00,24.6,15.8,30.33,WNW,292,5.0,11.3,69,0.00,,OVC010,0.00,VWS V14.01,2013-02-01 01:54:00,
2013-01-31 19:56:00,24.6,15.8,30.33,NW,314,6.7,7.0,69,0.00,,BKN019,0.00,VWS V14.01,2013-02-01 01:56:00,
2013-01-31 19:58:00,24.4,15.2,30.33,NW,315,3.9,9.9,67,0.00,,OVC010,0.00,VWS V14.01,2013-02-01 01:58:00,
2013-01-31 20:00:00,24.4,14.7,30.33,NW,323,5.0,9.9,66,0.00,,OVC010,0.00,VWS V14.01,2013-02-01 02:00:00,
2013-01-31 20:01:00,24.4,14.7,30.33,NW,320,7.8,9.9,66,0.00,,FEW019,0.00,VWS V14.01,2013-02-01 02:01:00,
2013-01-31 20:02:00,24.4,14.7,30.33,NW,306,4.4,9.9,66,0.00,,OVC010,0.00,VWS V14.01,2013-02-01 02:02:00,
2013-01-31 20:04:00,24.4,14.7,30.33,WNW,294,5.0,8.1,66,0.00,,OVC010,0.00,VWS V14.01,2013-02-01 02:04:00,
2013-01-31 20:06:00,24.3,14.1,30.33,WNW,292,6.1,8.1,65,0.00,,FEW019,0.00,VWS V14.01,2013-02-01 02:06:00,
2013-01-31 20:08:00,24.3,14.1,30.33,NW,310,7.2,8.1,65,0.00,,OVC010,0.00,VWS V14.01,2013-02-01 02:08:00,
2013-01-31 20:10:00,24.1,13.9,30.36,NW,316,5.0,8.1,65,0.00,,OVC010,0.00,VWS V14.01,2013-02-01 02:10:00,
2013-01-31 20:11:00,24.1,13.4,30.36,NNW,342,0.0,8.1,63,0.00,,FEW019,0.00,VWS V14.01,2013-02-01 02:11:00,
2013-01-31 20:12:00,24.1,13.4,30.36,WNW,303,6.7,8.1,63,0.00,,OVC010,0.00,VWS V14.01,2013-02-01 02:12:00,
2013-01-31 20:14:00,23.9,13.3,30.36,NNW,341,7.2,8.1,63,0.00,,OVC010,0.00,VWS V14.01,2013-02-01 02:14:00,
2013-01-31 20:16:00,23.9,13.3,30.36,North,0,6.7,7.0,63,0.00,,FEW019,0.00,VWS V14.01,2013-02-01 02:16:00,
2013-01-31 20:18:00,23.7,13.1,30.36,NNE,28,4.4,7.6,63,0.00,,OVC010,0.00,VWS V14.01,2013-02-01 02:18:00,
2013-01-31 20:20:00,23.7,13.1,30.36,North,5,6.7,10.8,63,0.00,,OVC010,0.00,VWS V14.01,2013-02-01 02:20:00,
2013-01-31 20:21:00,23.7,13.1,30.36,North,357,3.9,9.9,63,0.00,,FEW019,0.00,VWS V14.01,2013-02-01 02:21:00,
2013-01-31 20:22:00,23.7,13.1,30.36,North,357,5.0,7.0,63,0.00,,OVC010,0.00,VWS V14.01,2013-02-01 02:22:00,
2013-01-31 20:24:00,23.5,12.9,30.36,NNW,338,4.4,7.6,63,0.00,,OVC010,0.00,VWS V14.01,2013-02-01 02:24:00,
2013-01-31 20:26:00,23.5,12.9,30.36,NNE,30,9.4,12.5,63,0.00,,OVC010,0.00,VWS V14.01,2013-02-01 02:26:00,
2013-01-31 20:27:00,23.5,12.9,30.36,North,1,5.0,12.5,63,0.00,,FEW019,0.00,VWS V14.01,2013-02-01 02:27:00,
2013-01-31 20:28:00,23.5,12.9,30.36,NNE,17,5.0,9.9,63,0.00,,OVC010,0.00,VWS V14.01,2013-02-01 02:28:00,
2013-01-31 20:30:00,23.5,12.9,30.36,North,350,6.7,10.8,63,0.00,,OVC010,0.00,VWS V14.01,2013-02-01 02:30:00,
2013-01-31 20:32:00,23.4,12.8,30.36,North,353,4.4,10.8,63,0.00,,FEW019,0.00,VWS V14.01,2013-02-01 02:32:00,
2013-01-31 20:34:00,23.4,12.8,30.36,North,357,7.2,10.5,63,0.00,,OVC010,0.00,VWS V14.01,2013-02-01 02:34:00,
2013-01-31 20:36:00,23.4,12.8,30.36,NW,324,5.0,9.9,63,0.00,,OVC010,0.00,VWS V14.01,2013-02-01 02:36:00,
2013-01-31 20:37:00,23.4,12.8,30.36,North,357,8.3,8.7,63,0.00,,FEW019,0.00,VWS V14.01,2013-02-01 02:37:00,
2013-01-31 20:38:00,23.2,12.6,30.36,North,0,6.7,8.7,63,0.00,,OVC010,0.00,VWS V14.01,2013-02-01 02:38:00,
2013-01-31 20:40:00,23.2,12.6,30.36,NNW,339,3.9,8.1,63,0.00,,OVC010,0.00,VWS V14.01,2013-02-01 02:40:00,
2013-01-31 20:42:00,23.2,12.6,30.36,NW,308,3.3,7.6,63,0.00,,FEW019,0.00,VWS V14.01,2013-02-01 02:42:00,
2013-01-31 20:44:00,23.2,12.6,30.36,North,10,7.8,13.7,63,0.00,,OVC010,0.00,VWS V14.01,2013-02-01 02:44:00,
2013-01-31 20:46:00,23.2,12.6,30.36,North,349,5.0,9.9,63,0.00,,OVC010,0.00,VWS V14.01,2013-02-01 02:46:00,
2013-01-31 20:47:00,23.2,12.6,30.36,North,357,0.0,5.2,63,0.00,,CLR,0.00,VWS V14.01,2013-02-01 02:47:00,
2013-01-31 20:48:00,23.0,12.4,30.36,NW,313,4.4,5.2,63,0.00,,OVC010,0.00,VWS V14.01,2013-02-01 02:48:00,
2013-01-31 20:50:00,23.0,12.4,30.36,North,2,3.9,8.1,63,0.00,,OVC010,0.00,VWS V14.01,2013-02-01 02:50:00,
2013-01-31 20:52:00,23.0,12.4,30.36,North,7,3.3,5.2,63,0.00,,CLR,0.00,VWS V14.01,2013-02-01 02:52:00,
2013-01-31 20:54:00,22.8,12.3,30.39,NNW,348,3.9,4.7,63,0.00,,OVC010,0.00,VWS V14.01,2013-02-01 02:54:00,
2013-01-31 20:56:00,22.8,12.3,30.39,North,2,4.4,5.2,63,0.00,,OVC010,0.00,VWS V14.01,2013-02-01 02:56:00,
2013-01-31 20:57:00,22.8,12.3,30.39,North,353,0.0,4.7,63,0.00,,CLR,0.00,VWS V14.01,2013-02-01 02:57:00,
2013-01-31 20:58:00,22.8,12.3,30.39,WNW,300,6.7,7.0,63,0.00,,OVC010,0.00,VWS V14.01,2013-02-01 02:58:00,
2013-01-31 21:00:00,22.8,12.3,30.39,NW,306,3.9,7.0,63,0.00,,OVC010,0.00,VWS V14.01,2013-02-01 03:00:00,
2013-01-31 21:02:00,22.6,12.1,30.39,NNW,341,3.9,9.3,63,0.00,,CLR,0.00,VWS V14.01,2013-02-01 03:02:00,
2013-01-31 21:04:00,22.6,12.1,30.39,North,0,3.9,9.3,63,0.00,,OVC010,0.00,VWS V14.01,2013-02-01 03:04:00,
2013-01-31 21:06:00,22.6,12.1,30.39,North,10,5.0,6.4,63,0.00,,OVC010,0.00,VWS V14.01,2013-02-01 03:06:00,
2013-01-31 21:07:00,22.5,11.9,30.39,NNW,338,4.4,6.4,63,0.00,,CLR,0.00,VWS V14.01,2013-02-01 03:07:00,
2013-01-31 21:08:00,22.5,11.9,30.39,WNW,303,10.3,10.8,63,0.00,,OVC010,0.00,VWS V14.01,2013-02-01 03:08:00,
2013-01-31 21:10:00,22.5,11.9,30.36,WNW,296,7.8,8.1,63,0.00,,OVC010,0.00,VWS V14.01,2013-02-01 03:10:00,
2013-01-31 21:12:00,22.5,11.9,30.36,NNW,331,7.8,8.1,63,0.00,,CLR,0.00,VWS V14.01,2013-02-01 03:12:00,
2013-01-31 21:14:00,22.5,11.9,30.36,NNW,344,0.0,8.1,63,0.00,,OVC010,0.00,VWS V14.01,2013-02-01 03:14:00,
2013-01-31 21:16:00,22.5,11.9,30.36,WNW,282,6.7,7.0,63,0.00,,OVC010,0.00,VWS V14.01,2013-02-01 03:16:00,
2013-01-31 21:17:00,22.3,11.7,30.36,NW,310,5.0,8.1,63,0.00,,CLR,0.00,VWS V14.01,2013-02-01 03:17:00,
2013-01-31 21:18:00,22.3,11.7,30.36,NW,322,4.4,8.1,63,0.00,,OVC010,0.00,VWS V14.01,2013-02-01 03:18:00,
2013-01-31 21:20:00,22.3,11.7,30.36,NW,319,5.0,5.2,63,0.00,,OVC010,0.00,VWS V14.01,2013-02-01 03:20:00,
2013-01-31 21:22:00,22.3,11.7,30.36,North,353,3.3,6.4,63,0.00,,CLR,0.00,VWS V14.01,2013-02-01 03:22:00,
2013-01-31 21:24:00,22.3,11.7,30.39,North,350,4.4,6.4,63,0.00,,OVC010,0.00,VWS V14.01,2013-02-01 03:24:00,
2013-01-31 21:26:00,22.3,11.7,30.39,North,5,5.0,9.3,63,0.00,,OVC010,0.00,VWS V14.01,2013-02-01 03:26:00,
2013-01-31 21:27:00,22.3,11.7,30.39,NNW,332,6.1,9.3,63,0.00,,CLR,0.00,VWS V14.01,2013-02-01 03:27:00,
2013-01-31 21:28:00,22.3,11.7,30.39,NNW,337,5.0,7.6,63,0.00,,OVC010,0.00,VWS V14.01,2013-02-01 03:28:00,
2013-01-31 21:30:00,22.1,11.6,30.39,WNW,301,3.3,7.0,63,0.00,,OVC010,0.00,VWS V14.01,2013-02-01 03:30:00,
2013-01-31 21:32:00,22.1,11.6,30.39,NNW,336,7.8,8.1,63,0.00,,CLR,0.00,VWS V14.01,2013-02-01 03:32:00,
2013-01-31 21:34:00,22.1,11.6,30.39,WNW,303,0.0,8.1,63,0.00,,OVC010,0.00,VWS V14.01,2013-02-01 03:34:00,
2013-01-31 21:36:00,21.9,11.4,30.39,West,275,3.9,7.6,63,0.00,,OVC010,0.00,VWS V14.01,2013-02-01 03:36:00,
2013-01-31 21:37:00,21.9,11.4,30.39,NNE,12,7.2,7.6,63,0.00,,CLR,0.00,VWS V14.01,2013-02-01 03:37:00,
2013-01-31 21:38:00,21.9,11.4,30.39,NW,320,3.3,7.6,63,0.00,,OVC010,0.00,VWS V14.01,2013-02-01 03:38:00,
2013-01-31 21:40:00,21.9,11.4,30.39,North,353,6.1,7.6,63,0.00,,OVC010,0.00,VWS V14.01,2013-02-01 03:40:00,
2013-01-31 21:42:00,21.7,11.2,30.39,NW,322,7.2,10.5,63,0.00,,CLR,0.00,VWS V14.01,2013-02-01 03:42:00,
2013-01-31 21:44:00,21.7,11.2,30.39,NW,318,5.0,9.9,63,0.00,,OVC010,0.00,VWS V14.01,2013-02-01 03:44:00,
2013-01-31 21:46:00,21.9,10.9,30.39,North,1,3.3,7.6,62,0.00,,OVC010,0.00,VWS V14.01,2013-02-01 03:46:00,
2013-01-31 21:47:00,21.9,10.9,30.39,NW,316,2.8,5.8,62,0.00,,CLR,0.00,VWS V14.01,2013-02-01 03:47:00,
2013-01-31 21:48:00,21.9,10.9,30.39,NW,315,0.0,5.8,62,0.00,,OVC010,0.00,VWS V14.01,2013-02-01 03:48:00,
2013-01-31 21:50:00,21.7,10.8,30.39,West,281,2.8,7.0,62,0.00,,OVC010,0.00,VWS V14.01,2013-02-01 03:50:00,
2013-01-31 21:52:00,21.7,10.8,30.39,WNW,293,3.9,13.1,62,0.00,,CLR,0.00,VWS V14.01,2013-02-01 03:52:00,
2013-01-31 21:54:00,21.7,10.8,30.39,NW,316,8.3,13.1,62,0.00,,OVC010,0.00,VWS V14.01,2013-02-01 03:54:00,
2013-01-31 21:56:00,21.7,10.8,30.39,NW,314,2.8,10.5,62,0.00,,OVC010,0.00,VWS V14.01,2013-02-01 03:56:00,
2013-01-31 21:57:00,21.7,10.8,30.39,NW,315,3.9,7.0,62,0.00,,CLR,0.00,VWS V14.01,2013-02-01 03:57:00,
2013-01-31 21:58:00,21.7,10.8,30.39,WNW,303,6.1,7.0,62,0.00,,OVC010,0.00,VWS V14.01,2013-02-01 03:58:00,
2013-01-31 22:00:00,21.6,10.6,30.39,NNW,343,6.1,9.9,62,0.00,,OVC010,0.00,VWS V14.01,2013-02-01 04:00:00,
2013-01-31 22:02:00,21.6,10.6,30.39,NW,320,5.0,5.2,62,0.00,,CLR,0.00,VWS V14.01,2013-02-01 04:02:00,
2013-01-31 22:04:00,21.6,10.1,30.39,NNW,328,3.9,8.1,61,0.00,,OVC010,0.00,VWS V14.01,2013-02-01 04:04:00,
2013-01-31 22:06:00,21.6,10.1,30.39,NW,305,6.7,8.1,61,0.00,,OVC010,0.00,VWS V14.01,2013-02-01 04:06:00,
2013-01-31 22:07:00,21.4,9.9,30.39,NNW,330,7.8,8.1,61,0.00,,CLR,0.00,VWS V14.01,2013-02-01 04:07:00,
2013-01-31 22:08:00,21.4,9.9,30.39,North,357,6.7,8.1,61,0.00,,OVC010,0.00,VWS V14.01,2013-02-01 04:08:00,
2013-01-31 22:10:00,21.4,9.9,30.39,NW,320,8.3,8.7,61,0.00,,OVC010,0.00,VWS V14.01,2013-02-01 04:10:00,
2013-01-31 22:12:00,21.4,9.9,30.39,NNE,15,3.3,8.7,61,0.00,,OVC010,0.00,VWS V14.01,2013-02-01 04:12:00,
2013-01-31 22:13:00,21.4,9.9,30.39,NNE,21,7.2,9.9,61,0.00,,CLR,0.00,VWS V14.01,2013-02-01 04:13:00,
2013-01-31 22:14:00,21.2,9.8,30.39,NW,319,6.7,9.9,61,0.00,,OVC010,0.00,VWS V14.01,2013-02-01 04:14:00,
2013-01-31 22:16:00,21.2,9.8,30.39,North,6,3.9,9.9,61,0.00,,OVC010,0.00,VWS V14.01,2013-02-01 04:16:00,
2013-01-31 22:18:00,21.2,9.8,30.39,NW,317,6.7,7.0,61,0.00,,CLR,0.00,VWS V14.01,2013-02-01 04:18:00,
2013-01-31 22:20:00,21.0,9.6,30.39,NW,311,5.0,9.9,61,0.00,,OVC010,0.00,VWS V14.01,2013-02-01 04:20:00,
2013-01-31 22:22:00,21.0,9.1,30.39,NW,310,3.3,8.1,59,0.00,,OVC010,0.00,VWS V14.01,2013-02-01 04:22:00,
2013-01-31 22:23:00,21.0,9.1,30.39,NNE,27,4.4,8.1,59,0.00,,CLR,0.00,VWS V14.01,2013-02-01 04:23:00,
2013-01-31 22:24:00,21.0,9.1,30.39,NNE,17,7.2,9.3,59,0.00,,OVC010,0.00,VWS V14.01,2013-02-01 04:24:00,
2013-01-31 22:26:00,20.8,8.9,30.39,NNW,337,6.7,11.9,59,0.00,,OVC010,0.00,VWS V14.01,2013-02-01 04:26:00,
2013-01-31 22:28:00,20.8,8.9,30.39,North,2,5.0,11.3,59,0.00,,CLR,0.00,VWS V14.01,2013-02-01 04:28:00,
2013-01-31 22:30:00,20.8,8.9,30.39,NW,325,5.0,9.9,59,0.00,,OVC010,0.00,VWS V14.01,2013-02-01 04:30:00,
2013-01-31 22:32:00,20.8,8.9,30.39,North,9,6.1,13.1,59,0.00,,OVC010,0.00,VWS V14.01,2013-02-01 04:32:00,
2013-01-31 22:33:00,20.7,8.8,30.39,NE,39,6.1,13.1,59,0.00,,CLR,0.00,VWS V14.01,2013-02-01 04:33:00,
2013-01-31 22:34:00,20.7,8.8,30.39,NNE,28,4.4,8.1,59,0.00,,OVC010,0.00,VWS V14.01,2013-02-01 04:34:00,
2013-01-31 22:36:00,20.7,8.8,30.39,North,11,3.9,8.1,59,0.00,,OVC010,0.00,VWS V14.01,2013-02-01 04:36:00,
2013-01-31 22:38:00,20.7,8.8,30.39,NNW,340,3.3,7.6,59,0.00,,CLR,0.00,VWS V14.01,2013-02-01 04:38:00,
2013-01-31 22:40:00,20.5,8.6,30.39,NNE,17,7.8,8.1,59,0.00,,OVC010,0.00,VWS V14.01,2013-02-01 04:40:00,
2013-01-31 22:42:00,20.5,8.6,30.39,NNE,14,7.2,10.8,59,0.00,,OVC010,0.00,VWS V14.01,2013-02-01 04:42:00,
2013-01-31 22:43:00,20.5,8.6,30.39,NNW,341,7.8,13.1,59,0.00,,CLR,0.00,VWS V14.01,2013-02-01 04:43:00,
2013-01-31 22:44:00,20.5,8.6,30.39,North,0,3.9,13.1,59,0.00,,OVC010,0.00,VWS V14.01,2013-02-01 04:44:00,
2013-01-31 22:46:00,20.3,8.4,30.39,North,1,6.7,7.6,59,0.00,,OVC010,0.00,VWS V14.01,2013-02-01 04:46:00,
2013-01-31 22:48:00,20.3,8.4,30.39,NW,307,3.3,8.1,59,0.00,,CLR,0.00,VWS V14.01,2013-02-01 04:48:00,
2013-01-31 22:50:00,20.3,8.4,30.39,NNW,336,6.7,7.0,59,0.00,,OVC010,0.00,VWS V14.01,2013-02-01 04:50:00,
2013-01-31 22:52:00,20.3,8.4,30.39,NW,310,0.0,7.0,59,0.00,,OVC010,0.00,VWS V14.01,2013-02-01 04:52:00,
2013-01-31 22:53:00,20.3,8.4,30.39,North,0,4.4,5.2,59,0.00,,CLR,0.00,VWS V14.01,2013-02-01 04:53:00,
2013-01-31 22:54:00,20.3,8.4,30.39,NNE,12,2.8,5.2,59,0.00,,OVC010,0.00,VWS V14.01,2013-02-01 04:54:00,
2013-01-31 22:56:00,20.1,8.2,30.39,NNW,338,6.7,7.0,59,0.00,,OVC010,0.00,VWS V14.01,2013-02-01 04:56:00,
2013-01-31 22:58:00,19.9,8.1,30.39,NW,311,4.4,7.0,59,0.00,,CLR,0.00,VWS V14.01,2013-02-01 04:58:00,
2013-01-31 23:00:00,19.9,8.1,30.39,NW,322,6.1,7.0,59,0.00,,CLR,0.00,VWS V14.01,2013-02-01 05:00:00,
2013-01-31 23:01:00,19.9,8.1,30.39,North,2,0.0,7.6,59,0.00,,CLR,0.00,VWS V14.01,2013-02-01 05:01:00,
2013-01-31 23:02:00,19.9,8.1,30.39,North,357,0.0,7.6,59,0.00,,CLR,0.00,VWS V14.01,2013-02-01 05:02:00,
2013-01-31 23:04:00,19.9,8.1,30.39,NW,305,5.5,5.8,59,0.00,,OVC010,0.00,VWS V14.01,2013-02-01 05:04:00,
2013-01-31 23:06:00,19.9,8.6,30.39,North,357,6.7,8.1,61,0.00,,OVC010,0.00,VWS V14.01,2013-02-01 05:06:00,
2013-01-31 23:07:00,19.9,8.6,30.39,West,278,5.0,8.1,61,0.00,,CLR,0.00,VWS V14.01,2013-02-01 05:07:00,
2013-01-31 23:08:00,19.8,8.4,30.39,NNW,335,7.2,7.6,61,0.00,,OVC010,0.00,VWS V14.01,2013-02-01 05:08:00,
2013-01-31 23:10:00,19.8,8.4,30.39,NW,324,3.3,7.6,61,0.00,,OVC010,0.00,VWS V14.01,2013-02-01 05:10:00,
2013-01-31 23:12:00,19.8,8.4,30.39,NNW,328,3.9,7.6,61,0.00,,CLR,0.00,VWS V14.01,2013-02-01 05:12:00,
2013-01-31 23:14:00,19.8,8.4,30.39,North,6,0.0,4.7,61,0.00,,OVC010,0.00,VWS V14.01,2013-02-01 05:14:00,
2013-01-31 23:16:00,19.8,8.4,30.39,North,353,4.4,6.4,61,0.00,,OVC010,0.00,VWS V14.01,2013-02-01 05:16:00,
2013-01-31 23:17:00,19.8,7.9,30.39,NNE,28,3.3,7.6,59,0.00,,CLR,0.00,VWS V14.01,2013-02-01 05:17:00,
2013-01-31 23:18:00,19.6,7.7,30.39,NNE,17,3.9,8.1,59,0.00,,OVC010,0.00,VWS V14.01,2013-02-01 05:18:00,
2013-01-31 23:20:00,19.6,7.7,30.39,NW,306,0.0,7.0,59,0.00,,OVC010,0.00,VWS V14.01,2013-02-01 05:20:00,
2013-01-31 23:22:00,19.6,7.7,30.39,North,353,2.8,4.1,59,0.00,,CLR,0.00,VWS V14.01,2013-02-01 05:22:00,
2013-01-31 23:24:00,19.4,8.1,30.39,NW,325,6.7,8.1,61,0.00,,OVC010,0.00,VWS V14.01,2013-02-01 05:24:00,
2013-01-31 23:26:00,19.4,8.1,30.42,NNE,12,3.9,7.0,61,0.00,,OVC010,0.00,VWS V14.01,2013-02-01 05:26:00,
2013-01-31 23:27:00,19.4,8.1,30.42,North,357,0.0,5.2,61,0.00,,CLR,0.00,VWS V14.01,2013-02-01 05:27:00,
2013-01-31 23:28:00,19.4,8.1,30.42,NNW,345,3.9,5.2,61,0.00,,OVC010,0.00,VWS V14.01,2013-02-01 05:28:00,
2013-01-31 23:30:00,19.4,8.1,30.42,NNE,19,3.9,8.1,61,0.00,,OVC010,0.00,VWS V14.01,2013-02-01 05:30:00,
2013-01-31 23:32:00,19.2,7.9,30.42,North,1,5.0,8.1,61,0.00,,CLR,0.00,VWS V14.01,2013-02-01 05:32:00,
2013-01-31 23:34:00,19.2,7.9,30.42,North,2,5.0,5.2,61,0.00,,OVC010,0.00,VWS V14.01,2013-02-01 05:34:00,
2013-01-31 23:36:00,19.2,7.9,30.42,North,10,6.7,8.1,61,0.00,,OVC010,0.00,VWS V14.01,2013-02-01 05:36:00,
2013-01-31 23:37:00,19.2,7.9,30.42,North,6,7.2,7.6,61,0.00,,CLR,0.00,VWS V14.01,2013-02-01 05:37:00,
2013-01-31 23:38:00,19.2,7.9,30.42,North,1,3.9,7.6,61,0.00,,OVC010,0.00,VWS V14.01,2013-02-01 05:38:00,
2013-01-31 23:40:00,19.0,7.7,30.39,NNW,341,8.9,9.3,61,0.00,,OVC010,0.00,VWS V14.01,2013-02-01 05:40:00,
2013-01-31 23:42:00,19.0,7.7,30.39,North,353,0.0,7.0,61,0.00,,CLR,0.00,VWS V14.01,2013-02-01 05:42:00,
2013-01-31 23:44:00,19.0,7.7,30.39,North,8,6.7,7.6,61,0.00,,OVC010,0.00,VWS V14.01,2013-02-01 05:44:00,
2013-01-31 23:46:00,19.0,7.7,30.39,NNE,33,4.4,8.1,61,0.00,,OVC010,0.00,VWS V14.01,2013-02-01 05:46:00,
2013-01-31 23:47:00,19.0,7.7,30.39,NNW,339,6.7,7.0,61,0.00,,CLR,0.00,VWS V14.01,2013-02-01 05:47:00,
2013-01-31 23:48:00,19.0,7.7,30.39,North,8,6.7,7.0,61,0.00,,OVC010,0.00,VWS V14.01,2013-02-01 05:48:00,
2013-01-31 23:50:00,18.9,7.6,30.39,NE,44,3.3,8.1,61,0.00,,OVC010,0.00,VWS V14.01,2013-02-01 05:50:00,
2013-01-31 23:52:00,18.9,7.6,30.39,North,10,2.8,7.0,61,0.00,,CLR,0.00,VWS V14.01,2013-02-01 05:52:00,
2013-01-31 23:54:00,18.7,7.4,30.39,NW,313,5.0,5.2,61,0.00,,OVC010,0.00,VWS V14.01,2013-02-01 05:54:00,
2013-01-31 23:56:00,18.7,7.4,30.39,NW,323,6.1,9.3,61,0.00,,OVC010,0.00,VWS V14.01,2013-02-01 05:56:00,
2013-01-31 23:57:00,18.7,7.4,30.39,NNE,28,7.8,9.3,61,0.00,,CLR,0.00,VWS V14.01,2013-02-01 05:57:00,
2013-01-31 23:58:00,18.7,7.4,30.39,North,2,5.0,8.1,61,0.00,,OVC010,0.00,VWS V14.01,2013-02-01 05:58:00,